IW9BHU-13 Weather Reports


time (UTC)temp
C
wind
direction
speed
KPH
gust
KPH
rain 1hr
cm
rain 24hr
cm
rain mn
cm
humidity
%
barometer
mb
20260906083412 30 359 11.3 20.9 0.00 0.00 0.00 60 1017.8
20260906083315 31 3 11.3 20.9 0.00 0.00 0.00 60 1017.9
20260906083219 31 14 12.9 19.3 0.00 0.00 0.00 60 1017.9
20260906083127 31 22 12.9 19.3 0.00 0.00 0.00 59 1017.9
20260906083004 31 27 12.9 19.3 0.00 0.00 0.00 60 1017.9
20260906082904 30 27 11.3 20.9 0.00 0.00 0.00 60 1017.9
20260906082804 30 27 11.3 20.9 0.00 0.00 0.00 60 1017.9
20260906082704 30 27 11.3 20.9 0.00 0.00 0.00 60 1017.9
20260906082604 30 27 11.3 20.9 0.00 0.00 0.00 61 1017.9
20260906082504 30 27 11.3 20.9 0.00 0.00 0.00 61 1017.9
20260906082404 30 28 11.3 20.9 0.00 0.00 0.00 61 1017.8
20260906082306 30 27 11.3 20.9 0.00 0.00 0.00 61 1017.9
20260906082204 30 26 11.3 20.9 0.00 0.00 0.00 60 1017.9
20260906082104 30 26 9.7 20.9 0.00 0.00 0.00 60 1017.9
20260906082005 30 23 9.7 20.9 0.00 0.00 0.00 60 1017.8
20260906081924 30 23 9.7 20.9 0.00 0.00 0.00 60 1017.8
20260906081818 30 23 9.7 20.9 0.00 0.00 0.00 60 1017.8
20260906081709 30 26 9.7 20.9 0.00 0.00 0.00 60 1017.8
20260906081629 30 25 9.7 17.7 0.00 0.00 0.00 60 1017.7
20260906081504 30 23 9.7 17.7 0.00 0.00 0.00 60 1017.8
20260906081405 30 17 9.7 17.7 0.00 0.00 0.00 60 1017.8
20260906081304 30 10 9.7 17.7 0.00 0.00 0.00 61 1017.8
20260906081204 30 3 9.7 17.7 0.00 0.00 0.00 61 1017.8
20260906081104 30 357 9.7 17.7 0.00 0.00 0.00 61 1017.8
20260906081004 30 355 9.7 17.7 0.00 0.00 0.00 61 1017.9
20260906080904 30 356 9.7 17.7 0.00 0.00 0.00 62 1017.9
20260906080804 30 356 9.7 17.7 0.00 0.00 0.00 62 1017.9
20260906080705 30 352 9.7 17.7 0.00 0.00 0.00 62 1017.8
20260906080605 30 346 9.7 17.7 0.00 0.00 0.00 62 1017.8
20260906080504 30 345 9.7 17.7 0.00 0.00 0.00 62 1017.9
20260906080415 30 351 9.7 17.7 0.00 0.00 0.00 62 1017.9
20260906080308 30 359 9.7 17.7 0.00 0.00 0.00 62 1017.9
20260906080215 30 6 9.7 19.3 0.00 0.00 0.00 62 1017.9
20260906080127 30 11 9.7 19.3 0.00 0.00 0.00 62 1017.8
20260906080004 30 16 9.7 19.3 0.00 0.00 0.00 62 1017.7
20260906075904 30 18 9.7 19.3 0.00 0.00 0.00 62 1017.7
20260906075804 30 17 9.7 19.3 0.00 0.00 0.00 62 1017.8
20260906075704 30 15 9.7 19.3 0.00 0.00 0.00 61 1017.8
20260906075604 30 17 9.7 19.3 0.00 0.00 0.00 62 1017.8
20260906075504 30 17 9.7 19.3 0.00 0.00 0.00 62 1017.7
20260906075404 30 18 11.3 19.3 0.00 0.00 0.00 63 1017.7
20260906075306 30 19 11.3 22.5 0.00 0.00 0.00 63 1017.8
20260906075204 30 18 11.3 22.5 0.00 0.00 0.00 63 1017.7
20260906075104 30 19 11.3 22.5 0.00 0.00 0.00 63 1017.7
20260906075004 30 18 11.3 22.5 0.00 0.00 0.00 63 1017.7
20260906074912 30 20 11.3 24.1 0.00 0.00 0.00 63 1017.7
20260906074815 30 20 11.3 24.1 0.00 0.00 0.00 64 1017.7
20260906074707 30 23 11.3 24.1 0.00 0.00 0.00 64 1017.7
20260906074620 30 25 11.3 24.1 0.00 0.00 0.00 64 1017.7
20260906074505 30 28 11.3 24.1 0.00 0.00 0.00 64 1017.6
20260906074405 30 28 11.3 24.1 0.00 0.00 0.00 64 1017.7
20260906074304 30 25 11.3 24.1 0.00 0.00 0.00 64 1017.7
20260906074204 30 22 9.7 24.1 0.00 0.00 0.00 64 1017.6
20260906074106 30 21 9.7 24.1 0.00 0.00 0.00 64 1017.6
20260906074005 30 20 9.7 24.1 0.00 0.00 0.00 64 1017.7
20260906073905 30 18 9.7 19.3 0.00 0.00 0.00 65 1017.6
20260906073804 30 18 9.7 19.3 0.00 0.00 0.00 65 1017.6
20260906073704 30 16 11.3 19.3 0.00 0.00 0.00 65 1017.7
20260906073605 30 14 11.3 25.7 0.00 0.00 0.00 65 1017.7
20260906073504 29 15 9.7 25.7 0.00 0.00 0.00 65 1017.7
20260906073423 29 15 9.7 25.7 0.00 0.00 0.00 65 1017.7
20260906073321 30 15 9.7 25.7 0.00 0.00 0.00 65 1017.7
20260906073210 29 15 9.7 25.7 0.00 0.00 0.00 66 1017.7
20260906073127 29 14 9.7 25.7 0.00 0.00 0.00 66 1017.7
20260906073004 29 9 9.7 25.7 0.00 0.00 0.00 66 1017.7
20260906072904 29 12 9.7 25.7 0.00 0.00 0.00 65 1017.7
20260906072804 29 12 9.7 25.7 0.00 0.00 0.00 65 1017.7
20260906072704 29 12 9.7 25.7 0.00 0.00 0.00 65 1017.7
20260906072604 29 11 9.7 20.9 0.00 0.00 0.00 65 1017.7
20260906072504 29 4 9.7 19.3 0.00 0.00 0.00 65 1017.7
20260906072404 30 360 9.7 19.3 0.00 0.00 0.00 66 1017.6
20260906072306 30 3 9.7 19.3 0.00 0.00 0.00 66 1017.6
20260906072204 30 8 8.0 19.3 0.00 0.00 0.00 66 1017.6
20260906072104 30 12 8.0 19.3 0.00 0.00 0.00 65 1017.6
20260906072004 30 17 8.0 19.3 0.00 0.00 0.00 66 1017.6
20260906071909 29 17 8.0 19.3 0.00 0.00 0.00 66 1017.6
20260906071810 29 11 8.0 19.3 0.00 0.00 0.00 67 1017.6
20260906071719 29 10 8.0 16.1 0.00 0.00 0.00 67 1017.7
20260906071620 29 12 8.0 17.7 0.00 0.00 0.00 67 1017.6
20260906071504 29 16 9.7 17.7 0.00 0.00 0.00 67 1017.6
20260906071404 29 22 9.7 17.7 0.00 0.00 0.00 67 1017.6
20260906071304 29 15 9.7 17.7 0.00 0.00 0.00 67 1017.6
20260906071204 29 9 9.7 17.7 0.00 0.00 0.00 67 1017.6
20260906071104 29 359 9.7 19.3 0.00 0.00 0.00 67 1017.5
20260906071004 29 349 11.3 19.3 0.00 0.00 0.00 68 1017.5
20260906070904 29 340 11.3 19.3 0.00 0.00 0.00 68 1017.6
20260906070804 29 339 11.3 19.3 0.00 0.00 0.00 68 1017.6
20260906070704 29 329 11.3 19.3 0.00 0.00 0.00 68 1017.6
20260906070604 28 327 11.3 19.3 0.00 0.00 0.00 69 1017.6
20260906070504 28 322 11.3 22.5 0.00 0.00 0.00 69 1017.6
20260906070421 28 320 11.3 22.5 0.00 0.00 0.00 69 1017.5
20260906070320 28 322 9.7 22.5 0.00 0.00 0.00 69 1017.4
20260906070213 28 323 9.7 22.5 0.00 0.00 0.00 69 1017.4
20260906070126 28 327 9.7 22.5 0.00 0.00 0.00 69 1017.5
20260906070005 28 331 9.7 22.5 0.00 0.00 0.00 69 1017.5
20260906065904 28 333 9.7 22.5 0.00 0.00 0.00 69 1017.5
20260906065804 28 336 9.7 22.5 0.00 0.00 0.00 69 1017.4
20260906065704 28 346 8.0 22.5 0.00 0.00 0.00 69 1017.4
20260906065604 28 348 8.0 22.5 0.00 0.00 0.00 68 1017.5
20260906065504 28 357 8.0 20.9 0.00 0.00 0.00 69 1017.4
20260906065404 28 4 8.0 20.9 0.00 0.00 0.00 69 1017.4
20260906065305 28 10 8.0 20.9 0.00 0.00 0.00 69 1017.4
20260906065204 28 7 8.0 20.9 0.00 0.00 0.00 69 1017.4
20260906065104 28 5 8.0 20.9 0.00 0.00 0.00 69 1017.4
20260906065004 28 11 8.0 20.9 0.00 0.00 0.00 69 1017.4
20260906064914 28 15 8.0 20.9 0.00 0.00 0.00 69 1017.4
20260906064813 28 15 8.0 20.9 0.00 0.00 0.00 69 1017.3
20260906064715 28 15 8.0 17.7 0.00 0.00 0.00 69 1017.3
20260906064621 28 13 8.0 17.7 0.00 0.00 0.00 70 1017.4
20260906064504 28 10 8.0 17.7 0.00 0.00 0.00 70 1017.4
20260906064404 28 4 8.0 17.7 0.00 0.00 0.00 70 1017.4
20260906064304 28 358 8.0 17.7 0.00 0.00 0.00 70 1017.3
20260906064204 28 1 8.0 17.7 0.00 0.00 0.00 70 1017.4
20260906064104 28 357 8.0 17.7 0.00 0.00 0.00 70 1017.4
20260906064004 28 350 9.7 17.7 0.00 0.00 0.00 71 1017.4
20260906063904 28 347 9.7 17.7 0.00 0.00 0.00 71 1017.4
20260906063804 28 342 9.7 17.7 0.00 0.00 0.00 71 1017.4
20260906063704 28 340 9.7 17.7 0.00 0.00 0.00 71 1017.3
20260906063604 28 335 11.3 19.3 0.00 0.00 0.00 71 1017.3
20260906063504 28 336 11.3 19.3 0.00 0.00 0.00 71 1017.3
20260906063419 28 334 11.3 19.3 0.00 0.00 0.00 72 1017.3
20260906063315 28 328 12.9 19.3 0.00 0.00 0.00 72 1017.3
20260906063207 28 322 12.9 20.9 0.00 0.00 0.00 72 1017.2
20260906063125 28 321 12.9 20.9 0.00 0.00 0.00 72 1017.2
20260906063004 28 320 12.9 20.9 0.00 0.00 0.00 72 1017.2
20260906062905 28 320 14.5 20.9 0.00 0.00 0.00 73 1017.2
20260906062805 28 318 14.5 20.9 0.00 0.00 0.00 73 1017.2
20260906062704 28 315 14.5 22.5 0.00 0.00 0.00 73 1017.1
20260906062604 28 316 14.5 22.5 0.00 0.00 0.00 73 1017.1
20260906062504 28 314 14.5 22.5 0.00 0.00 0.00 72 1017.1
20260906062404 28 313 14.5 22.5 0.00 0.00 0.00 73 1017.1
20260906062306 28 314 14.5 22.5 0.00 0.00 0.00 73 1017.1
20260906062204 28 314 14.5 22.5 0.00 0.00 0.00 72 1017.1
20260906062104 28 315 14.5 22.5 0.00 0.00 0.00 73 1017.1
20260906062004 28 316 12.9 22.5 0.00 0.00 0.00 73 1017.2
20260906061918 28 314 12.9 22.5 0.00 0.00 0.00 73 1017.2
20260906061819 28 315 12.9 22.5 0.00 0.00 0.00 73 1017.1
20260906061718 28 316 12.9 22.5 0.00 0.00 0.00 73 1017.0
20260906061625 28 316 12.9 22.5 0.00 0.00 0.00 73 1017.0
20260906061504 28 316 12.9 22.5 0.00 0.00 0.00 73 1017.1
20260906061408 28 317 12.9 22.5 0.00 0.00 0.00 73 1017.1
20260906061304 27 319 12.9 22.5 0.00 0.00 0.00 73 1017.1
20260906061204 28 322 12.9 22.5 0.00 0.00 0.00 73 1017.0
20260906061103 27 322 12.9 22.5 0.00 0.00 0.00 73 1017.0
20260906061004 27 319 12.9 22.5 0.00 0.00 0.00 73 1017.0
20260906060903 27 322 12.9 22.5 0.00 0.00 0.00 73 1017.0
20260906060804 27 322 12.9 22.5 0.00 0.00 0.00 73 1017.0
20260906060704 27 322 12.9 22.5 0.00 0.00 0.00 73 1017.0
20260906060604 27 322 12.9 22.5 0.00 0.00 0.00 73 1017.0
20260906060504 27 321 12.9 22.5 0.00 0.00 0.00 74 1017.0
20260906060413 27 320 12.9 22.5 0.00 0.00 0.00 74 1017.0
20260906060319 27 319 11.3 22.5 0.00 0.00 0.00 73 1017.0
20260906060206 27 317 11.3 22.5 0.00 0.00 0.00 74 1016.9
20260906060125 27 316 11.3 22.5 0.00 0.00 0.00 74 1016.9
20260906060004 27 321 11.3 22.5 0.00 0.00 0.00 73 1016.9
20260906055903 27 320 11.3 22.5 0.00 0.00 0.00 73 1016.9
20260906055804 27 318 11.3 22.5 0.00 0.00 0.00 74 1016.9
20260906055703 27 318 9.7 20.9 0.00 0.00 0.00 74 1016.9
20260906055604 27 321 9.7 20.9 0.00 0.00 0.00 74 1016.9
20260906055504 27 323 9.7 20.9 0.00 0.00 0.00 75 1016.9
20260906055403 27 326 9.7 20.9 0.00 0.00 0.00 75 1016.9
20260906055306 27 325 9.7 20.9 0.00 0.00 0.00 75 1016.9
20260906055204 27 326 11.3 20.9 0.00 0.00 0.00 75 1016.9
20260906055104 27 326 11.3 20.9 0.00 0.00 0.00 75 1017.0
20260906055004 27 326 11.3 20.9 0.00 0.00 0.00 75 1017.0
20260906054914 27 329 11.3 20.9 0.00 0.00 0.00 75 1017.0
20260906054812 27 328 11.3 20.9 0.00 0.00 0.00 75 1016.9
20260906054720 27 329 11.3 20.9 0.00 0.00 0.00 76 1016.9
20260906054626 27 328 11.3 20.9 0.00 0.00 0.00 76 1016.9
20260906054504 27 329 11.3 20.9 0.00 0.00 0.00 76 1016.9
20260906054404 27 329 11.3 20.9 0.00 0.00 0.00 76 1016.9
20260906054304 27 331 11.3 20.9 0.00 0.00 0.00 76 1016.9
20260906054204 27 332 11.3 20.9 0.00 0.00 0.00 76 1016.9
20260906054104 27 330 11.3 20.9 0.00 0.00 0.00 76 1016.9
20260906054004 27 327 11.3 20.9 0.00 0.00 0.00 76 1016.9
20260906053905 27 325 11.3 20.9 0.00 0.00 0.00 76 1016.9
20260906053805 27 328 11.3 20.9 0.00 0.00 0.00 76 1016.9
20260906053705 27 325 11.3 20.9 0.00 0.00 0.00 76 1016.9
20260906053604 27 322 11.3 20.9 0.00 0.00 0.00 76 1016.9
20260906053505 27 317 11.3 19.3 0.00 0.00 0.00 76 1016.9
20260906053411 27 315 11.3 19.3 0.00 0.00 0.00 76 1016.9
20260906053307 27 314 11.3 19.3 0.00 0.00 0.00 77 1017.0
20260906053207 27 312 11.3 19.3 0.00 0.00 0.00 77 1017.0
20260906053121 27 314 11.3 19.3 0.00 0.00 0.00 77 1016.9
20260906053005 27 315 11.3 20.9 0.00 0.00 0.00 77 1016.9
20260906052904 27 314 11.3 20.9 0.00 0.00 0.00 77 1016.9
20260906052804 27 311 11.3 20.9 0.00 0.00 0.00 77 1016.8
20260906052704 27 312 11.3 20.9 0.00 0.00 0.00 77 1016.8
20260906052604 27 313 11.3 20.9 0.00 0.00 0.00 77 1016.9
20260906052504 27 315 11.3 20.9 0.00 0.00 0.00 77 1016.9
20260906052404 27 315 11.3 20.9 0.00 0.00 0.00 77 1016.9
20260906052306 27 313 11.3 20.9 0.00 0.00 0.00 77 1016.9
20260906052204 27 313 11.3 20.9 0.00 0.00 0.00 77 1016.9
20260906052104 27 310 11.3 20.9 0.00 0.00 0.00 77 1016.9
20260906052005 27 310 11.3 19.3 0.00 0.00 0.00 77 1016.9
20260906051917 27 309 11.3 19.3 0.00 0.00 0.00 77 1016.9
20260906051810 27 312 11.3 19.3 0.00 0.00 0.00 77 1016.9
20260906051707 27 312 11.3 17.7 0.00 0.00 0.00 77 1016.9
20260906051626 27 312 11.3 17.7 0.00 0.00 0.00 77 1016.9
20260906051505 27 308 11.3 20.9 0.00 0.00 0.00 77 1016.9
20260906051405 26 305 11.3 22.5 0.00 0.00 0.00 77 1016.9
20260906051304 26 307 11.3 22.5 0.00 0.00 0.00 77 1016.9
20260906051204 26 308 9.7 22.5 0.00 0.00 0.00 77 1016.9
20260906051104 26 308 9.7 22.5 0.00 0.00 0.00 77 1016.9
20260906051005 26 308 9.7 22.5 0.00 0.00 0.00 77 1016.9
20260906050904 26 309 9.7 22.5 0.00 0.00 0.00 77 1016.9
20260906050804 26 308 9.7 22.5 0.00 0.00 0.00 77 1016.8
20260906050704 26 307 9.7 22.5 0.00 0.00 0.00 77 1016.8
20260906050605 26 308 11.3 22.5 0.00 0.00 0.00 78 1016.8
20260906050504 26 310 11.3 22.5 0.00 0.00 0.00 78 1016.9
20260906050423 26 312 11.3 20.9 0.00 0.00 0.00 77 1016.9
20260906050320 26 314 11.3 19.3 0.00 0.00 0.00 77 1016.8
20260906050206 26 313 11.3 19.3 0.00 0.00 0.00 78 1016.8
20260906050125 26 313 12.9 19.3 0.00 0.00 0.00 77 1016.8
20260906050004 26 311 12.9 22.5 0.00 0.00 0.00 78 1016.8
20260906045904 26 308 12.9 22.5 0.00 0.00 0.00 78 1016.8
20260906045804 26 308 12.9 22.5 0.00 0.00 0.00 78 1016.8
20260906045704 26 309 12.9 22.5 0.00 0.00 0.00 78 1016.8
20260906045604 26 309 11.3 22.5 0.00 0.00 0.00 78 1016.8
20260906045504 26 309 11.3 22.5 0.00 0.00 0.00 78 1016.7
20260906045404 26 309 11.3 22.5 0.00 0.00 0.00 78 1016.8
20260906045306 26 309 11.3 22.5 0.00 0.00 0.00 78 1016.8
20260906045204 26 309 11.3 22.5 0.00 0.00 0.00 78 1016.8
20260906045104 26 310 11.3 22.5 0.00 0.00 0.00 78 1016.8
20260906045004 26 311 11.3 22.5 0.00 0.00 0.00 78 1016.8
20260906044913 26 311 11.3 22.5 0.00 0.00 0.00 78 1016.8
20260906044817 26 310 11.3 22.5 0.00 0.00 0.00 78 1016.8
20260906044712 26 310 11.3 22.5 0.00 0.00 0.00 78 1016.8
20260906044622 26 312 11.3 22.5 0.00 0.00 0.00 78 1016.8
20260906044504 26 310 11.3 22.5 0.00 0.00 0.00 78 1016.8
20260906044404 26 310 11.3 22.5 0.00 0.00 0.00 78 1016.7
20260906044304 26 308 11.3 20.9 0.00 0.00 0.00 78 1016.7
20260906044204 26 308 11.3 20.9 0.00 0.00 0.00 78 1016.7
20260906044104 26 308 11.3 20.9 0.00 0.00 0.00 78 1016.7
20260906044004 26 306 11.3 20.9 0.00 0.00 0.00 78 1016.7
20260906043904 26 307 11.3 20.9 0.00 0.00 0.00 78 1016.7
20260906043804 26 307 11.3 20.9 0.00 0.00 0.00 78 1016.7
20260906043704 26 305 11.3 20.9 0.00 0.00 0.00 78 1016.8
20260906043604 26 304 11.3 20.9 0.00 0.00 0.00 78 1016.8
20260906043504 26 304 11.3 20.9 0.00 0.00 0.00 78 1016.8
20260906043407 26 304 11.3 20.9 0.00 0.00 0.00 78 1016.7
20260906043313 26 305 11.3 20.9 0.00 0.00 0.00 78 1016.7
20260906043218 26 304 11.3 20.9 0.00 0.00 0.00 78 1016.8
20260906043120 26 303 11.3 20.9 0.00 0.00 0.00 78 1016.8
20260906043004 26 302 11.3 20.9 0.00 0.00 0.00 78 1016.8
20260906042904 26 302 9.7 20.9 0.00 0.00 0.00 78 1016.7
20260906042804 26 302 9.7 20.9 0.00 0.00 0.00 78 1016.7
20260906042704 26 302 9.7 20.9 0.00 0.00 0.00 78 1016.7
20260906042604 26 302 9.7 20.9 0.00 0.00 0.00 78 1016.7
20260906042504 26 302 9.7 20.9 0.00 0.00 0.00 78 1016.7
20260906042404 26 302 9.7 20.9 0.00 0.00 0.00 78 1016.7
20260906042306 26 303 9.7 20.9 0.00 0.00 0.00 78 1016.7
20260906042204 26 302 9.7 20.9 0.00 0.00 0.00 78 1016.7
20260906042104 26 304 9.7 20.9 0.00 0.00 0.00 78 1016.7
20260906042004 26 304 9.7 20.9 0.00 0.00 0.00 78 1016.7
20260906041915 26 303 9.7 20.9 0.00 0.00 0.00 78 1016.7
20260906041814 26 308 9.7 20.9 0.00 0.00 0.00 78 1016.6
20260906041718 26 307 9.7 20.9 0.00 0.00 0.00 78 1016.6
20260906041626 26 309 9.7 20.9 0.00 0.00 0.00 78 1016.6
20260906041504 26 311 9.7 20.9 0.00 0.00 0.00 78 1016.6
20260906041404 26 313 9.7 20.9 0.00 0.00 0.00 77 1016.6
20260906041304 26 312 9.7 20.9 0.00 0.00 0.00 77 1016.7
20260906041204 26 313 9.7 20.9 0.00 0.00 0.00 77 1016.7
20260906041104 26 311 9.7 20.9 0.00 0.00 0.00 77 1016.6
20260906041004 26 314 9.7 20.9 0.00 0.00 0.00 77 1016.6
20260906040904 26 314 9.7 20.9 0.00 0.00 0.00 77 1016.6
20260906040804 26 310 9.7 20.9 0.00 0.00 0.00 77 1016.6
20260906040704 26 311 9.7 20.9 0.00 0.00 0.00 77 1016.6
20260906040604 26 310 9.7 19.3 0.00 0.00 0.00 77 1016.6
20260906040504 26 309 9.7 19.3 0.00 0.00 0.00 77 1016.6
20260906040405 26 308 9.7 19.3 0.00 0.00 0.00 77 1016.6
20260906040309 26 307 9.7 17.7 0.00 0.00 0.00 77 1016.6
20260906040215 26 306 11.3 20.9 0.00 0.00 0.00 77 1016.6
20260906040124 26 306 11.3 20.9 0.00 0.00 0.00 77 1016.6
20260906040005 26 305 11.3 20.9 0.00 0.00 0.00 77 1016.6
20260906035905 26 306 11.3 20.9 0.00 0.00 0.00 77 1016.6
20260906035804 26 305 11.3 20.9 0.00 0.00 0.00 77 1016.6
20260906035704 26 305 11.3 20.9 0.00 0.00 0.00 77 1016.5
20260906035604 26 304 11.3 20.9 0.00 0.00 0.00 77 1016.5
20260906035504 26 303 11.3 20.9 0.00 0.00 0.00 77 1016.5
20260906035404 26 303 11.3 20.9 0.00 0.00 0.00 77 1016.5
20260906035306 26 302 11.3 20.9 0.00 0.00 0.00 77 1016.6
20260906035204 26 304 11.3 19.3 0.00 0.00 0.00 77 1016.5
20260906035104 26 306 11.3 19.3 0.00 0.00 0.00 77 1016.5
20260906035004 26 305 11.3 20.9 0.00 0.00 0.00 77 1016.5
20260906034912 26 306 11.3 20.9 0.00 0.00 0.00 77 1016.5
20260906034815 26 305 11.3 20.9 0.00 0.00 0.00 77 1016.4
20260906034712 26 305 11.3 20.9 0.00 0.00 0.00 77 1016.4
20260906034622 27 307 11.3 20.9 0.00 0.00 0.00 77 1016.4
20260906034505 26 309 11.3 20.9 0.00 0.00 0.00 77 1016.4
20260906034404 27 311 11.3 20.9 0.00 0.00 0.00 77 1016.4
20260906034304 27 312 11.3 20.9 0.00 0.00 0.00 77 1016.4
20260906034204 26 310 11.3 20.9 0.00 0.00 0.00 77 1016.4
20260906034105 27 309 11.3 20.9 0.00 0.00 0.00 77 1016.4
20260906034004 27 308 11.3 20.9 0.00 0.00 0.00 77 1016.5
20260906033904 27 308 11.3 20.9 0.00 0.00 0.00 77 1016.4
20260906033804 27 307 11.3 20.9 0.00 0.00 0.00 77 1016.4
20260906033704 27 309 11.3 20.9 0.00 0.00 0.00 77 1016.3
20260906033604 27 308 11.3 20.9 0.00 0.00 0.00 77 1016.3
20260906033504 27 308 11.3 20.9 0.00 0.00 0.00 77 1016.4
20260906033410 27 306 11.3 20.9 0.00 0.00 0.00 77 1016.4
20260906033308 27 306 11.3 20.9 0.00 0.00 0.00 77 1016.4
20260906033213 27 307 11.3 20.9 0.00 0.00 0.00 77 1016.4
20260906033124 27 306 11.3 20.9 0.00 0.00 0.00 77 1016.4
20260906033004 27 307 11.3 20.9 0.00 0.00 0.00 77 1016.3
20260906032904 27 308 11.3 20.9 0.00 0.00 0.00 77 1016.3
20260906032804 27 311 11.3 20.9 0.00 0.00 0.00 77 1016.3
20260906032704 27 312 9.7 20.9 0.00 0.00 0.00 77 1016.3
20260906032604 27 314 9.7 19.3 0.00 0.00 0.00 77 1016.3
20260906032504 27 314 9.7 19.3 0.00 0.00 0.00 77 1016.3
20260906032404 27 317 9.7 19.3 0.00 0.00 0.00 77 1016.3
20260906032306 27 319 9.7 19.3 0.00 0.00 0.00 77 1016.3
20260906032204 27 321 9.7 19.3 0.00 0.00 0.00 77 1016.3
20260906032104 27 322 9.7 19.3 0.00 0.00 0.00 77 1016.3
20260906032004 27 321 9.7 19.3 0.00 0.00 0.00 77 1016.3
20260906031914 27 319 9.7 19.3 0.00 0.00 0.00 77 1016.3
20260906031816 27 317 9.7 19.3 0.00 0.00 0.00 77 1016.3
20260906031721 27 313 9.7 19.3 0.00 0.00 0.00 77 1016.3
20260906031626 27 311 9.7 19.3 0.00 0.00 0.00 77 1016.3
20260906031503 27 311 9.7 19.3 0.00 0.00 0.00 77 1016.3
20260906031403 27 312 9.7 19.3 0.00 0.00 0.00 77 1016.3
20260906031303 27 310 9.7 19.3 0.00 0.00 0.00 77 1016.3
20260906031203 27 309 9.7 19.3 0.00 0.00 0.00 77 1016.3
20260906031105 27 310 9.7 19.3 0.00 0.00 0.00 77 1016.3
20260906031004 27 312 9.7 19.3 0.00 0.00 0.00 77 1016.3
20260906030904 27 312 9.7 19.3 0.00 0.00 0.00 77 1016.3
20260906030805 27 312 9.7 19.3 0.00 0.00 0.00 77 1016.3
20260906030704 27 314 9.7 19.3 0.00 0.00 0.00 77 1016.3
20260906030604 27 315 11.3 19.3 0.00 0.00 0.00 76 1016.3
20260906030505 27 316 11.3 19.3 0.00 0.00 0.00 76 1016.3
20260906030421 27 314 11.3 19.3 0.00 0.00 0.00 76 1016.3
20260906030314 27 313 11.3 19.3 0.00 0.00 0.00 76 1016.3
20260906030211 27 314 11.3 19.3 0.00 0.00 0.00 76 1016.3
20260906030126 27 315 11.3 19.3 0.00 0.00 0.00 76 1016.3
20260906030006 27 316 9.7 19.3 0.00 0.00 0.00 76 1016.3
20260906025904 27 316 9.7 19.3 0.00 0.00 0.00 76 1016.3
20260906025805 27 318 9.7 19.3 0.00 0.00 0.00 76 1016.3
20260906025704 27 318 9.7 19.3 0.00 0.00 0.00 76 1016.3
20260906025604 27 316 9.7 19.3 0.00 0.00 0.00 76 1016.4
20260906025504 27 315 8.0 19.3 0.00 0.00 0.00 76 1016.4
20260906025405 27 317 8.0 19.3 0.00 0.00 0.00 77 1016.4
20260906025306 27 317 8.0 17.7 0.00 0.00 0.00 77 1016.4
20260906025205 27 317 8.0 17.7 0.00 0.00 0.00 77 1016.4
20260906025104 27 319 8.0 16.1 0.00 0.00 0.00 77 1016.4
20260906025004 27 321 8.0 16.1 0.00 0.00 0.00 77 1016.4
20260906024908 27 323 8.0 16.1 0.00 0.00 0.00 76 1016.4
20260906024813 27 322 8.0 16.1 0.00 0.00 0.00 76 1016.4
20260906024717 27 326 8.0 16.1 0.00 0.00 0.00 76 1016.4
20260906024622 27 328 8.0 16.1 0.00 0.00 0.00 76 1016.5
20260906024504 27 327 8.0 16.1 0.00 0.00 0.00 76 1016.5
20260906024405 27 323 8.0 17.7 0.00 0.00 0.00 76 1016.5
20260906024305 27 326 8.0 17.7 0.00 0.00 0.00 76 1016.4
20260906024205 27 326 8.0 17.7 0.00 0.00 0.00 76 1016.4
20260906024104 27 325 8.0 17.7 0.00 0.00 0.00 76 1016.5
20260906024004 27 326 8.0 17.7 0.00 0.00 0.00 76 1016.4
20260906023904 27 328 8.0 17.7 0.00 0.00 0.00 76 1016.4
20260906023804 27 332 8.0 17.7 0.00 0.00 0.00 76 1016.5
20260906023704 27 331 8.0 17.7 0.00 0.00 0.00 76 1016.5
20260906023604 27 332 8.0 17.7 0.00 0.00 0.00 76 1016.5
20260906023504 27 331 8.0 17.7 0.00 0.00 0.00 76 1016.5
20260906023408 27 331 8.0 16.1 0.00 0.00 0.00 76 1016.5
20260906023312 27 327 8.0 16.1 0.00 0.00 0.00 76 1016.5
20260906023217 27 322 8.0 16.1 0.00 0.00 0.00 76 1016.6
20260906023122 27 320 8.0 16.1 0.00 0.00 0.00 76 1016.6
20260906023004 27 313 8.0 16.1 0.00 0.00 0.00 76 1016.6
20260906022904 27 308 8.0 16.1 0.00 0.00 0.00 76 1016.6
20260906022804 27 304 8.0 16.1 0.00 0.00 0.00 76 1016.5
20260906022704 27 300 8.0 17.7 0.00 0.00 0.00 76 1016.6
20260906022604 27 300 8.0 17.7 0.00 0.00 0.00 76 1016.6
20260906022504 27 302 8.0 17.7 0.00 0.00 0.00 76 1016.6
20260906022404 27 303 8.0 17.7 0.00 0.00 0.00 76 1016.6
20260906022307 27 304 8.0 17.7 0.00 0.00 0.00 76 1016.6
20260906022204 27 306 8.0 17.7 0.00 0.00 0.00 76 1016.6
20260906022104 27 306 8.0 17.7 0.00 0.00 0.00 76 1016.6
20260906022005 27 307 8.0 17.7 0.00 0.00 0.00 76 1016.5
20260906021921 27 309 8.0 17.7 0.00 0.00 0.00 76 1016.5
20260906021818 27 308 8.0 17.7 0.00 0.00 0.00 76 1016.6
20260906021710 27 311 8.0 17.7 0.00 0.00 0.00 76 1016.5
20260906021627 27 309 8.0 17.7 0.00 0.00 0.00 76 1016.5
20260906021504 27 309 8.0 17.7 0.00 0.00 0.00 76 1016.6
20260906021404 27 308 8.0 19.3 0.00 0.00 0.00 76 1016.5
20260906021304 27 309 6.4 19.3 0.00 0.00 0.00 76 1016.5
20260906021204 27 310 6.4 19.3 0.00 0.00 0.00 76 1016.5
20260906021104 27 311 6.4 19.3 0.00 0.00 0.00 76 1016.5
20260906021004 27 313 6.4 19.3 0.00 0.00 0.00 76 1016.5
20260906020904 27 313 6.4 19.3 0.00 0.00 0.00 76 1016.6
20260906020804 27 312 6.4 19.3 0.00 0.00 0.00 76 1016.6
20260906020704 27 310 8.0 19.3 0.00 0.00 0.00 76 1016.5
20260906020604 27 311 8.0 19.3 0.00 0.00 0.00 76 1016.6
20260906020505 27 309 8.0 19.3 0.00 0.00 0.00 76 1016.6
20260906020407 27 308 8.0 17.7 0.00 0.00 0.00 76 1016.5
20260906020306 27 307 8.0 19.3 0.00 0.00 0.00 76 1016.5
20260906020215 27 306 8.0 19.3 0.00 0.00 0.00 76 1016.6
20260906020124 27 304 8.0 19.3 0.00 0.00 0.00 76 1016.6
20260906020004 27 301 8.0 19.3 0.00 0.00 0.00 76 1016.6
20260906015904 27 299 8.0 19.3 0.00 0.00 0.00 76 1016.5
20260906015805 27 304 8.0 19.3 0.00 0.00 0.00 76 1016.5
20260906015704 27 307 8.0 19.3 0.00 0.00 0.00 76 1016.5
20260906015604 27 309 8.0 19.3 0.00 0.00 0.00 76 1016.5
20260906015510 27 311 8.0 19.3 0.00 0.00 0.00 76 1016.5
20260906015404 27 315 8.0 19.3 0.00 0.00 0.00 76 1016.5
20260906015306 27 316 8.0 19.3 0.00 0.00 0.00 76 1016.5
20260906015204 27 313 9.7 19.3 0.00 0.00 0.00 76 1016.4
20260906015104 27 315 9.7 19.3 0.00 0.00 0.00 76 1016.6
20260906015004 27 317 9.7 19.3 0.00 0.00 0.00 76 1016.6
20260906014920 27 322 11.3 19.3 0.00 0.00 0.00 76 1016.6
20260906014817 27 324 11.3 19.3 0.00 0.00 0.00 76 1016.6
20260906014710 27 323 11.3 22.5 0.00 0.00 0.00 76 1016.5
20260906014625 27 321 12.9 22.5 0.00 0.00 0.00 76 1016.5
20260906014504 27 317 12.9 24.1 0.00 0.00 0.00 76 1016.5
20260906014405 27 313 12.9 24.1 0.00 0.00 0.00 76 1016.5
20260906014104 27 311 11.3 24.1 0.00 0.00 0.00 76 1016.5
20260906014004 27 308 11.3 24.1 0.00 0.00 0.00 76 1016.5
20260906013904 27 305 9.7 24.1 0.00 0.00 0.00 76 1016.5
20260906013804 27 303 9.7 24.1 0.00 0.00 0.00 76 1016.5
20260906013704 27 301 9.7 24.1 0.00 0.00 0.00 76 1016.5
20260906013604 27 302 8.0 24.1 0.00 0.00 0.00 76 1016.5
20260906013504 27 304 8.0 24.1 0.00 0.00 0.00 76 1016.5
20260906013412 27 306 8.0 20.9 0.00 0.00 0.00 76 1016.5
20260906013314 27 312 8.0 20.9 0.00 0.00 0.00 76 1016.5
20260906013214 27 320 8.0 20.9 0.00 0.00 0.00 76 1016.5
20260906013125 27 325 8.0 20.9 0.00 0.00 0.00 76 1016.5
20260906013004 27 331 8.0 20.9 0.00 0.00 0.00 76 1016.5
20260906012904 27 337 8.0 20.9 0.00 0.00 0.00 76 1016.5
20260906012804 27 339 9.7 20.9 0.00 0.00 0.00 76 1016.5
20260906012704 27 340 9.7 17.7 0.00 0.00 0.00 76 1016.5
20260906012604 27 335 9.7 17.7 0.00 0.00 0.00 76 1016.5
20260906012504 27 330 9.7 17.7 0.00 0.00 0.00 76 1016.6
20260906012403 27 323 9.7 17.7 0.00 0.00 0.00 76 1016.6
20260906012306 27 316 9.7 17.7 0.00 0.00 0.00 76 1016.5
20260906012204 27 310 11.3 19.3 0.00 0.00 0.00 76 1016.5
20260906012104 27 309 11.3 19.3 0.00 0.00 0.00 76 1016.6
20260906012004 27 308 11.3 19.3 0.00 0.00 0.00 76 1016.5
20260906011918 27 306 11.3 19.3 0.00 0.00 0.00 76 1016.5
20260906011818 27 303 11.3 19.3 0.00 0.00 0.00 76 1016.5
20260906011713 27 302 11.3 19.3 0.00 0.00 0.00 76 1016.5
20260906011627 27 303 11.3 20.9 0.00 0.00 0.00 76 1016.5
20260906011504 27 303 11.3 20.9 0.00 0.00 0.00 76 1016.5
20260906011404 27 303 11.3 22.5 0.00 0.00 0.00 76 1016.5
20260906011304 27 303 11.3 22.5 0.00 0.00 0.00 76 1016.5
20260906011204 27 303 11.3 22.5 0.00 0.00 0.00 76 1016.5
20260906011104 27 303 11.3 22.5 0.00 0.00 0.00 76 1016.5
20260906011005 27 305 11.3 22.5 0.00 0.00 0.00 76 1016.5
20260906010904 27 309 11.3 22.5 0.00 0.00 0.00 76 1016.5
20260906010804 27 315 11.3 22.5 0.00 0.00 0.00 76 1016.5
20260906010704 27 317 11.3 22.5 0.00 0.00 0.00 76 1016.4
20260906010604 27 319 11.3 22.5 0.00 0.00 0.00 76 1016.4
20260906010504 27 318 11.3 22.5 0.00 0.00 0.00 76 1016.5
20260906010415 27 317 11.3 20.9 0.00 0.00 0.00 76 1016.5
20260906010316 27 318 11.3 19.3 0.00 0.00 0.00 76 1016.5
20260906010209 27 318 9.7 20.9 0.00 0.00 0.00 76 1016.5
20260906010123 27 317 9.7 20.9 0.00 0.00 0.00 76 1016.5
20260906010004 27 316 9.7 20.9 0.00 0.00 0.00 76 1016.4
20260906005904 27 314 9.7 20.9 0.00 0.00 0.00 76 1016.4
20260906005805 27 311 9.7 20.9 0.00 0.00 0.00 76 1016.4
20260906005704 27 311 9.7 20.9 0.00 0.00 0.00 76 1016.4
20260906005604 27 311 9.7 20.9 0.00 0.00 0.00 76 1016.4
20260906005504 27 313 9.7 20.9 0.00 0.00 0.00 76 1016.5
20260906005404 27 314 9.7 22.5 0.00 0.00 0.00 76 1016.5
20260906005306 27 314 9.7 22.5 0.00 0.00 0.00 76 1016.5
20260906005204 27 314 9.7 22.5 0.00 0.00 0.00 76 1016.4
20260906005104 27 313 9.7 22.5 0.00 0.00 0.00 76 1016.4
20260906005004 27 312 9.7 22.5 0.00 0.00 0.00 76 1016.5
20260906004919 27 310 9.7 22.5 0.00 0.00 0.00 76 1016.5
20260906004817 27 311 9.7 22.5 0.00 0.00 0.00 76 1016.5
20260906004705 27 311 9.7 22.5 0.00 0.00 0.00 76 1016.4
20260906004625 27 313 9.7 22.5 0.00 0.00 0.00 76 1016.4
20260906004504 27 315 9.7 22.5 0.00 0.00 0.00 77 1016.4
20260906004404 27 315 9.7 20.9 0.00 0.00 0.00 77 1016.4
20260906004304 27 318 9.7 20.9 0.00 0.00 0.00 77 1016.4
20260906004204 27 321 9.7 19.3 0.00 0.00 0.00 77 1016.5
20260906004105 27 324 9.7 17.7 0.00 0.00 0.00 77 1016.5
20260906004004 27 329 9.7 17.7 0.00 0.00 0.00 77 1016.5
20260906003904 27 330 9.7 20.9 0.00 0.00 0.00 77 1016.5
20260906003804 27 329 9.7 20.9 0.00 0.00 0.00 77 1016.5
20260906003704 27 328 9.7 20.9 0.00 0.00 0.00 77 1016.5
20260906003604 27 327 8.0 20.9 0.00 0.00 0.00 77 1016.5
20260906003504 27 330 8.0 20.9 0.00 0.00 0.00 77 1016.5
20260906003413 27 331 8.0 20.9 0.00 0.00 0.00 77 1016.5
20260906003314 27 333 8.0 20.9 0.00 0.00 0.00 77 1016.5
20260906003215 27 335 8.0 20.9 0.00 0.00 0.00 77 1016.4
20260906003120 27 341 6.4 20.9 0.00 0.00 0.00 77 1016.5
20260906003005 27 345 6.4 20.9 0.00 0.00 0.00 77 1016.5
20260906002905 27 352 6.4 19.3 0.00 0.00 0.00 77 1016.5
20260906002804 27 357 6.4 19.3 0.00 0.00 0.00 77 1016.5
20260906002704 27 5 6.4 19.3 0.00 0.00 0.00 77 1016.6
20260906002604 27 11 6.4 19.3 0.00 0.00 0.00 77 1016.5
20260906002505 27 17 6.4 14.5 0.00 0.00 0.00 77 1016.5
20260906002404 27 21 6.4 14.5 0.00 0.00 0.00 77 1016.5
20260906002306 27 25 6.4 14.5 0.00 0.00 0.00 77 1016.5
20260906002204 27 21 6.4 14.5 0.00 0.00 0.00 77 1016.5
20260906002104 27 19 6.4 14.5 0.00 0.00 0.00 77 1016.5
20260906002004 27 20 6.4 14.5 0.00 0.00 0.00 77 1016.5
20260906001916 27 19 6.4 14.5 0.00 0.00 0.00 77 1016.4
20260906001818 27 19 6.4 14.5 0.00 0.00 0.00 77 1016.4
20260906001714 27 21 6.4 14.5 0.00 0.00 0.00 77 1016.5
20260906001623 27 19 6.4 14.5 0.00 0.00 0.00 77 1016.6
20260906001504 27 19 6.4 14.5 0.00 0.00 0.00 77 1016.6
20260906001404 27 18 6.4 14.5 0.00 0.00 0.00 77 1016.6
20260906001304 27 14 6.4 14.5 0.00 0.00 0.00 77 1016.6
20260906001204 27 28 6.4 14.5 0.00 0.00 0.00 78 1016.6
20260906001104 27 32 6.4 14.5 0.00 0.00 0.00 78 1016.6
20260906001005 27 28 6.4 14.5 0.00 0.00 0.00 78 1016.6
20260906000905 27 30 8.0 17.7 0.00 0.00 0.00 78 1016.6
20260906000804 27 30 12.9 17.7 0.00 0.00 0.00 78 1016.6
20260906000704 27 30 12.9 17.7 0.00 0.00 0.00 78 1016.6
20260906000605 27 30 12.9 17.7 0.00 0.00 0.00 78 1016.6
20260906000505 27 30 14.5 17.7 0.00 0.00 0.00 78 1016.6
20260906000420 27 30 14.5 17.7 0.00 0.00 0.00 78 1016.6
20260906000318 27 30 12.9 27.4 0.00 0.00 0.00 78 1016.7
20260906000211 27 30 12.9 27.4 0.00 0.00 0.00 78 1016.7
20260906000124 27 30 12.9 27.4 0.00 0.00 0.00 61 1016.6
20260906000004 27 30 12.9 27.4 0.00 0.00 0.00 61 1016.7
20260905235904 27 30 12.9 27.4 0.00 0.00 0.00 61 1016.6
20260905235804 27 30 12.9 27.4 0.00 0.00 0.00 61 1016.7
20260905235704 27 29 12.9 27.4 0.00 0.00 0.00 61 1016.7
20260905235604 27 29 14.5 27.4 0.00 0.00 0.00 61 1016.7
20260905235504 27 28 14.5 27.4 0.00 0.00 0.00 61 1016.8
20260905235404 27 28 14.5 27.4 0.00 0.00 0.00 61 1016.7
20260905235306 27 28 14.5 27.4 0.00 0.00 0.00 61 1016.7
20260905235204 27 27 16.1 27.4 0.00 0.00 0.00 61 1016.8
20260905235104 27 27 16.1 27.4 0.00 0.00 0.00 61 1016.8
20260905235004 27 26 17.7 20.9 0.00 0.00 0.00 61 1016.8
20260905234917 27 25 17.7 29.0 0.00 0.00 0.00 61 1016.9
20260905234817 27 26 19.3 29.0 0.00 0.00 0.00 61 1016.9
20260905234712 27 27 19.3 29.0 0.00 0.00 0.00 61 1016.9
20260905234625 27 27 19.3 29.0 0.00 0.00 0.00 61 1016.9
20260905234504 27 28 20.9 29.0 0.00 0.00 0.00 61 1017.0
20260905234404 27 28 20.9 29.0 0.00 0.00 0.00 61 1016.9
20260905234304 27 31 20.9 29.0 0.00 0.00 0.00 61 1016.9
20260905234204 27 31 20.9 29.0 0.00 0.00 0.00 61 1016.8
20260905234104 27 32 20.9 29.0 0.00 0.00 0.00 61 1016.8
20260905234004 27 32 20.9 29.0 0.00 0.00 0.00 61 1016.8
20260905233904 27 31 20.9 25.7 0.00 0.00 0.00 61 1016.8
20260905233804 27 31 20.9 29.0 0.00 0.00 0.00 61 1016.8
20260905233704 27 31 20.9 29.0 0.00 0.00 0.00 61 1016.8
20260905233604 27 31 20.9 29.0 0.00 0.00 0.00 60 1016.9
20260905233504 27 32 20.9 29.0 0.00 0.00 0.00 60 1016.9
20260905233414 27 33 20.9 29.0 0.00 0.00 0.00 60 1016.9
20260905233314 27 29 20.9 29.0 0.00 0.00 0.00 60 1016.9
20260905233215 27 28 20.9 29.0 0.00 0.00 0.00 60 1017.0
20260905233125 27 27 19.3 29.0 0.00 0.00 0.00 60 1017.0
20260905233004 27 25 17.7 29.0 0.00 0.00 0.00 60 1017.0
20260905232904 27 27 12.9 29.0 0.00 0.00 0.00 60 1016.9
20260905232804 27 24 6.4 29.0 0.00 0.00 0.00 61 1016.9
20260905232704 27 23 4.8 24.1 0.00 0.00 0.00 60 1016.9
20260905232604 27 22 4.8 24.1 0.00 0.00 0.00 60 1017.0
20260905232504 27 22 4.8 24.1 0.00 0.00 0.00 60 1017.0
20260905232404 27 22 4.8 24.1 0.00 0.00 0.00 60 1017.0
20260905232306 27 22 4.8 24.1 0.00 0.00 0.00 60 1017.0
20260905232204 27 22 4.8 9.7 0.00 0.00 0.00 60 1017.0
20260905232104 27 22 4.8 9.7 0.00 0.00 0.00 78 1017.0
20260905232004 27 22 4.8 9.7 0.00 0.00 0.00 78 1017.0
20260905231904 27 22 4.8 9.7 0.00 0.00 0.00 78 1017.1
20260905231804 27 22 4.8 9.7 0.00 0.00 0.00 78 1017.1
20260905231704 27 22 4.8 9.7 0.00 0.00 0.00 78 1017.0
20260905231604 27 22 4.8 9.7 0.00 0.00 0.00 78 1017.0
20260905230904 27 20 6.4 9.7 0.00 0.00 0.00 78 1017.1
20260905230804 27 24 6.4 11.3 0.00 0.00 0.00 77 1017.1
20260905230704 27 26 6.4 11.3 0.00 0.00 0.00 77 1017.1
20260905230604 27 27 6.4 16.1 0.00 0.00 0.00 77 1017.1
20260905230504 27 27 6.4 16.1 0.00 0.00 0.00 77 1017.1
20260905230413 27 27 8.0 16.1 0.00 0.00 0.00 77 1017.1
20260905230313 27 25 8.0 16.1 0.00 0.00 0.00 77 1017.1
20260905230206 27 25 8.0 16.1 0.00 0.00 0.00 77 1017.2
20260905230132 27 27 8.0 16.1 0.00 0.00 0.00 77 1017.2
20260905230005 27 28 6.4 16.1 0.00 0.00 0.00 77 1017.2
20260905225904 27 29 6.4 16.1 0.00 0.00 0.00 77 1017.2
20260905225804 27 28 6.4 16.1 0.00 0.00 0.00 77 1017.2
20260905225704 27 29 6.4 16.1 0.00 0.00 0.00 77 1017.2
20260905225604 27 28 6.4 14.5 0.00 0.00 0.00 77 1017.2
20260905225504 27 28 6.4 14.5 0.00 0.00 0.00 77 1017.1
20260905225405 27 30 6.4 14.5 0.00 0.00 0.00 77 1017.1
20260905225306 27 32 4.8 14.5 0.00 0.00 0.00 77 1017.1
20260905225205 27 31 4.8 14.5 0.00 0.00 0.00 77 1017.1
20260905225105 27 26 4.8 12.9 0.00 0.00 0.00 77 1017.1
20260905225006 27 21 4.8 9.7 0.00 0.00 0.00 77 1017.1
20260905224904 27 17 4.8 9.7 0.00 0.00 0.00 77 1017.1
20260905224807 27 15 4.8 9.7 0.00 0.00 0.00 77 1017.1
20260905224714 27 13 4.8 9.7 0.00 0.00 0.00 77 1017.0
20260905224621 27 13 4.8 9.7 0.00 0.00 0.00 77 1017.0
20260905224504 27 12 4.8 9.7 0.00 0.00 0.00 77 1017.1
20260905224404 27 6 4.8 8.0 0.00 0.00 0.00 77 1017.1
20260905224304 27 4 4.8 8.0 0.00 0.00 0.00 77 1017.1
20260905224204 27 4 4.8 8.0 0.00 0.00 0.00 77 1017.1
20260905224104 27 7 4.8 8.0 0.00 0.00 0.00 77 1017.1
20260905224004 27 6 4.8 9.7 0.00 0.00 0.00 77 1017.2
20260905223904 27 7 4.8 9.7 0.00 0.00 0.00 77 1017.1
20260905223804 27 5 4.8 9.7 0.00 0.00 0.00 76 1017.1
20260905223704 27 4 4.8 9.7 0.00 0.00 0.00 76 1017.2
20260905223604 27 3 4.8 9.7 0.00 0.00 0.00 76 1017.2
20260905223504 27 3 4.8 11.3 0.00 0.00 0.00 76 1017.2
20260905223411 27 4 4.8 11.3 0.00 0.00 0.00 76 1017.2
20260905223314 27 6 6.4 11.3 0.00 0.00 0.00 76 1017.2
20260905223215 27 6 6.4 11.3 0.00 0.00 0.00 76 1017.3
20260905223125 27 7 6.4 11.3 0.00 0.00 0.00 76 1017.3
20260905223005 27 12 6.4 11.3 0.00 0.00 0.00 76 1017.3
20260905222904 27 10 6.4 11.3 0.00 0.00 0.00 76 1017.2
20260905222804 27 8 6.4 12.9 0.00 0.00 0.00 76 1017.2
20260905222704 27 7 6.4 12.9 0.00 0.00 0.00 76 1017.3
20260905222604 27 6 6.4 12.9 0.00 0.00 0.00 76 1017.3
20260905222504 27 4 6.4 12.9 0.00 0.00 0.00 76 1017.3
20260905222404 27 3 6.4 12.9 0.00 0.00 0.00 76 1017.3
20260905222306 27 2 6.4 12.9 0.00 0.00 0.00 76 1017.3
20260905222204 27 360 6.4 12.9 0.00 0.00 0.00 76 1017.3
20260905222104 27 358 6.4 12.9 0.00 0.00 0.00 76 1017.3
20260905222004 27 355 6.4 12.9 0.00 0.00 0.00 76 1017.3
20260905221904 27 355 4.8 12.9 0.00 0.00 0.00 76 1017.3
20260905221810 27 355 4.8 12.9 0.00 0.00 0.00 76 1017.3
20260905221718 27 352 4.8 12.9 0.00 0.00 0.00 76 1017.2
20260905221617 27 353 4.8 12.9 0.00 0.00 0.00 76 1017.3
20260905221504 27 353 4.8 12.9 0.00 0.00 0.00 76 1017.3
20260905221404 27 352 4.8 12.9 0.00 0.00 0.00 75 1017.2
20260905221305 27 347 4.8 12.9 0.00 0.00 0.00 75 1017.3
20260905221204 27 345 4.8 12.9 0.00 0.00 0.00 75 1017.3
20260905221104 27 340 4.8 11.3 0.00 0.00 0.00 75 1017.2
20260905221004 27 335 4.8 11.3 0.00 0.00 0.00 75 1017.2
20260905220904 27 330 4.8 8.0 0.00 0.00 0.00 75 1017.2
20260905220804 27 326 4.8 11.3 0.00 0.00 0.00 75 1017.2
20260905220705 27 322 4.8 11.3 0.00 0.00 0.00 75 1017.2
20260905220604 27 316 4.8 11.3 0.00 0.00 0.00 75 1017.2
20260905220508 27 314 4.8 11.3 0.00 0.00 0.00 75 1017.2
20260905220414 27 311 4.8 11.3 0.00 0.00 0.00 75 1017.2
20260905220316 27 309 4.8 11.3 0.00 0.00 0.00 75 1017.2
20260905220230 27 308 4.8 11.3 0.00 0.00 0.00 75 1017.2
20260905220103 27 309 4.8 11.3 0.00 0.00 0.00 76 1017.2
20260905215904 27 308 4.8 11.3 0.00 0.00 0.00 76 1017.2
20260905215804 27 306 4.8 11.3 0.00 0.00 0.00 76 1017.2
20260905215704 27 306 4.8 11.3 0.00 0.00 0.00 76 1017.2
20260905215604 27 307 3.2 11.3 0.00 0.00 0.00 76 1017.3
20260905215505 27 310 3.2 11.3 0.00 0.00 0.00 75 1017.2
20260905215404 27 312 3.2 11.3 0.00 0.00 0.00 75 1017.2
20260905215306 27 315 3.2 11.3 0.00 0.00 0.00 75 1017.2
20260905215204 27 314 3.2 11.3 0.00 0.00 0.00 75 1017.2
20260905215104 27 313 3.2 11.3 0.00 0.00 0.00 75 1017.2
20260905215004 27 313 3.2 11.3 0.00 0.00 0.00 75 1017.1
20260905214918 27 314 3.2 11.3 0.00 0.00 0.00 75 1017.1
20260905214817 27 317 3.2 8.0 0.00 0.00 0.00 75 1017.2
20260905214716 27 317 3.2 8.0 0.00 0.00 0.00 74 1017.2
20260905214624 27 317 3.2 6.4 0.00 0.00 0.00 74 1017.3
20260905214504 27 311 3.2 6.4 0.00 0.00 0.00 74 1017.2
20260905214404 27 309 4.8 6.4 0.00 0.00 0.00 74 1017.2
20260905214304 27 307 4.8 6.4 0.00 0.00 0.00 74 1017.2
20260905214205 27 310 4.8 6.4 0.00 0.00 0.00 74 1017.3
20260905214104 27 314 4.8 6.4 0.00 0.00 0.00 74 1017.3
20260905214004 27 319 4.8 9.7 0.00 0.00 0.00 74 1017.3
20260905213904 27 320 4.8 9.7 0.00 0.00 0.00 74 1017.3
20260905213804 27 320 4.8 9.7 0.00 0.00 0.00 74 1017.3
20260905213704 27 322 4.8 9.7 0.00 0.00 0.00 74 1017.3
20260905213604 27 324 4.8 9.7 0.00 0.00 0.00 74 1017.3
20260905213504 27 327 4.8 9.7 0.00 0.00 0.00 73 1017.3
20260905213404 28 329 4.8 9.7 0.00 0.00 0.00 73 1017.3
20260905213308 28 330 4.8 9.7 0.00 0.00 0.00 73 1017.3
20260905213217 28 330 4.8 9.7 0.00 0.00 0.00 73 1017.4
20260905213120 28 332 4.8 9.7 0.00 0.00 0.00 73 1017.4
20260905213004 28 335 6.4 9.7 0.00 0.00 0.00 73 1017.3
20260905212904 28 339 6.4 9.7 0.00 0.00 0.00 73 1017.3
20260905212804 28 343 6.4 9.7 0.00 0.00 0.00 73 1017.3
20260905212704 28 348 6.4 11.3 0.00 0.00 0.00 73 1017.3
20260905212604 28 352 6.4 11.3 0.00 0.00 0.00 72 1017.3
20260905212504 28 354 6.4 11.3 0.00 0.00 0.00 72 1017.3
20260905212404 28 357 6.4 11.3 0.00 0.00 0.00 72 1017.4
20260905212306 28 358 6.4 11.3 0.00 0.00 0.00 72 1017.4
20260905212204 28 6 6.4 11.3 0.00 0.00 0.00 72 1017.2
20260905212104 28 9 6.4 11.3 0.00 0.00 0.00 72 1017.2
20260905212004 28 9 6.4 11.3 0.00 0.00 0.00 72 1017.2
20260905211906 28 10 6.4 11.3 0.00 0.00 0.00 72 1017.3
20260905211811 28 14 6.4 11.3 0.00 0.00 0.00 71 1017.3
20260905211719 28 18 6.4 11.3 0.00 0.00 0.00 71 1017.3
20260905211626 28 15 6.4 11.3 0.00 0.00 0.00 71 1017.3
20260905211504 28 15 6.4 12.9 0.00 0.00 0.00 71 1017.3
20260905211404 28 13 6.4 12.9 0.00 0.00 0.00 71 1017.3
20260905211304 28 16 6.4 12.9 0.00 0.00 0.00 71 1017.3
20260905211204 28 11 6.4 12.9 0.00 0.00 0.00 71 1017.3
20260905211104 28 4 6.4 12.9 0.00 0.00 0.00 71 1017.3
20260905211009 28 3 6.4 12.9 0.00 0.00 0.00 71 1017.3
20260905210904 28 2 6.4 12.9 0.00 0.00 0.00 71 1017.4
20260905210804 28 359 6.4 12.9 0.00 0.00 0.00 71 1017.4
20260905210704 28 350 6.4 12.9 0.00 0.00 0.00 71 1017.3
20260905210604 28 352 6.4 12.9 0.00 0.00 0.00 71 1017.3
20260905210504 28 353 6.4 12.9 0.00 0.00 0.00 71 1017.3
20260905210404 28 356 6.4 12.9 0.00 0.00 0.00 71 1017.3
20260905210309 28 355 6.4 12.9 0.00 0.00 0.00 71 1017.3
20260905210220 28 352 6.4 12.9 0.00 0.00 0.00 71 1017.3
20260905210125 28 355 6.4 12.9 0.00 0.00 0.00 71 1017.3
20260905210005 28 357 6.4 12.9 0.00 0.00 0.00 71 1017.3
20260905205904 28 355 6.4 12.9 0.00 0.00 0.00 71 1017.3
20260905205804 28 356 6.4 12.9 0.00 0.00 0.00 71 1017.3
20260905205703 28 1 6.4 12.9 0.00 0.00 0.00 71 1017.3
20260905205604 28 360 6.4 12.9 0.00 0.00 0.00 71 1017.2
20260905205504 28 2 4.8 12.9 0.00 0.00 0.00 71 1017.2
20260905205404 28 1 4.8 12.9 0.00 0.00 0.00 71 1017.2
20260905205306 28 360 4.8 12.9 0.00 0.00 0.00 71 1017.3
20260905205204 28 358 4.8 12.9 0.00 0.00 0.00 71 1017.3
20260905205104 28 355 4.8 12.9 0.00 0.00 0.00 72 1017.3
20260905205004 28 352 4.8 12.9 0.00 0.00 0.00 72 1017.3
20260905204915 28 351 4.8 12.9 0.00 0.00 0.00 72 1017.3
20260905204816 28 352 4.8 9.7 0.00 0.00 0.00 72 1017.3
20260905204710 28 352 4.8 9.7 0.00 0.00 0.00 72 1017.3
20260905204627 28 353 4.8 9.7 0.00 0.00 0.00 72 1017.3
20260905204505 28 351 4.8 9.7 0.00 0.00 0.00 72 1017.3
20260905204405 28 349 4.8 9.7 0.00 0.00 0.00 72 1017.3
20260905204305 28 350 4.8 9.7 0.00 0.00 0.00 72 1017.3
20260905204204 28 350 6.4 9.7 0.00 0.00 0.00 72 1017.3
20260905204105 28 354 6.4 9.7 0.00 0.00 0.00 72 1017.3
20260905204005 28 353 6.4 9.7 0.00 0.00 0.00 72 1017.3
20260905203905 28 355 6.4 12.9 0.00 0.00 0.00 72 1017.3
20260905203805 28 356 6.4 12.9 0.00 0.00 0.00 72 1017.3
20260905203705 28 353 6.4 12.9 0.00 0.00 0.00 72 1017.3
20260905203605 28 348 6.4 12.9 0.00 0.00 0.00 72 1017.3
20260905203505 28 345 6.4 12.9 0.00 0.00 0.00 72 1017.4
20260905203419 28 345 6.4 12.9 0.00 0.00 0.00 72 1017.4
20260905203308 28 345 6.4 12.9 0.00 0.00 0.00 72 1017.4
20260905203212 28 347 6.4 12.9 0.00 0.00 0.00 72 1017.4
20260905203125 28 352 6.4 16.1 0.00 0.00 0.00 72 1017.3
20260905203004 28 355 6.4 16.1 0.00 0.00 0.00 72 1017.3
20260905202904 28 353 6.4 16.1 0.00 0.00 0.00 72 1017.3
20260905202805 28 352 6.4 16.1 0.00 0.00 0.00 72 1017.4
20260905202705 28 352 6.4 16.1 0.00 0.00 0.00 72 1017.4
20260905202605 28 357 6.4 16.1 0.00 0.00 0.00 72 1017.3
20260905202505 28 359 6.4 16.1 0.00 0.00 0.00 72 1017.3
20260905202405 28 4 6.4 16.1 0.00 0.00 0.00 72 1017.3
20260905202306 28 7 6.4 16.1 0.00 0.00 0.00 72 1017.3
20260905202204 28 8 6.4 16.1 0.00 0.00 0.00 72 1017.4
20260905202104 28 4 6.4 12.9 0.00 0.00 0.00 73 1017.4
20260905202005 28 8 6.4 12.9 0.00 0.00 0.00 73 1017.4
20260905201819 28 13 6.4 12.9 0.00 0.00 0.00 73 1017.4
20260905201706 28 17 6.4 14.5 0.00 0.00 0.00 73 1017.6
20260905201626 28 19 6.4 16.1 0.00 0.00 0.00 73 1017.6
20260905201505 28 22 6.4 16.1 0.00 0.00 0.00 73 1017.5
20260905201404 28 19 6.4 16.1 0.00 0.00 0.00 73 1017.5
20260905201304 28 18 6.4 16.1 0.00 0.00 0.00 72 1017.4
20260905201204 28 20 8.0 16.1 0.00 0.00 0.00 72 1017.5
20260905201105 28 22 8.0 16.1 0.00 0.00 0.00 73 1017.5
20260905201004 28 20 8.0 16.1 0.00 0.00 0.00 73 1017.4
20260905200904 28 19 8.0 16.1 0.00 0.00 0.00 73 1017.4
20260905200804 28 18 8.0 16.1 0.00 0.00 0.00 73 1017.4
20260905200704 28 20 8.0 17.7 0.00 0.00 0.00 73 1017.4
20260905200604 28 18 8.0 17.7 0.00 0.00 0.00 73 1017.4
20260905200505 28 19 8.0 17.7 0.00 0.00 0.00 73 1017.4
20260905200419 28 21 8.0 17.7 0.00 0.00 0.00 73 1017.4
20260905200316 28 23 9.7 17.7 0.00 0.00 0.00 73 1017.4
20260905200207 28 23 9.7 17.7 0.00 0.00 0.00 73 1017.3
20260905200130 28 24 9.7 17.7 0.00 0.00 0.00 73 1017.3
20260905200005 28 25 9.7 19.3 0.00 0.00 0.00 73 1017.3
20260905195904 28 27 9.7 19.3 0.00 0.00 0.00 73 1017.3
20260905195804 28 27 9.7 19.3 0.00 0.00 0.00 73 1017.3
20260905195704 28 27 9.7 19.3 0.00 0.00 0.00 73 1017.4
20260905195604 28 28 8.0 19.3 0.00 0.00 0.00 72 1017.4
20260905195504 28 27 8.0 19.3 0.00 0.00 0.00 72 1017.4
20260905195404 28 28 8.0 19.3 0.00 0.00 0.00 72 1017.3
20260905195306 28 27 8.0 19.3 0.00 0.00 0.00 72 1017.3
20260905195204 28 25 8.0 19.3 0.00 0.00 0.00 72 1017.4
20260905195104 28 23 8.0 19.3 0.00 0.00 0.00 72 1017.4
20260905195004 28 22 8.0 16.1 0.00 0.00 0.00 72 1017.4
20260905194920 28 22 8.0 16.1 0.00 0.00 0.00 72 1017.4
20260905194807 28 20 8.0 16.1 0.00 0.00 0.00 72 1017.4
20260905194711 28 17 8.0 16.1 0.00 0.00 0.00 72 1017.4
20260905194633 28 14 8.0 16.1 0.00 0.00 0.00 72 1017.4
20260905194504 28 15 8.0 16.1 0.00 0.00 0.00 72 1017.4
20260905194404 28 11 8.0 17.7 0.00 0.00 0.00 72 1017.3
20260905194304 28 9 8.0 17.7 0.00 0.00 0.00 72 1017.3
20260905194206 28 10 8.0 17.7 0.00 0.00 0.00 72 1017.3
20260905194104 28 9 8.0 17.7 0.00 0.00 0.00 72 1017.3
20260905194004 28 8 8.0 17.7 0.00 0.00 0.00 72 1017.3
20260905193904 28 7 8.0 17.7 0.00 0.00 0.00 72 1017.3
20260905193804 28 6 8.0 17.7 0.00 0.00 0.00 72 1017.3
20260905193704 28 5 6.4 17.7 0.00 0.00 0.00 72 1017.3
20260905193604 28 7 6.4 17.7 0.00 0.00 0.00 72 1017.4
20260905193504 28 7 6.4 17.7 0.00 0.00 0.00 72 1017.4
20260905193416 28 6 6.4 14.5 0.00 0.00 0.00 72 1017.3
20260905193318 28 4 6.4 14.5 0.00 0.00 0.00 72 1017.3
20260905193218 28 3 6.4 14.5 0.00 0.00 0.00 72 1017.2
20260905193120 28 3 6.4 14.5 0.00 0.00 0.00 73 1017.3
20260905193005 28 2 6.4 14.5 0.00 0.00 0.00 72 1017.3
20260905192904 28 2 6.4 14.5 0.00 0.00 0.00 73 1017.3
20260905192804 28 2 8.0 14.5 0.00 0.00 0.00 73 1017.3
20260905192704 28 3 8.0 14.5 0.00 0.00 0.00 73 1017.3
20260905192604 28 1 8.0 14.5 0.00 0.00 0.00 73 1017.3
20260905192504 28 358 8.0 14.5 0.00 0.00 0.00 73 1017.3
20260905192404 28 359 8.0 14.5 0.00 0.00 0.00 73 1017.2
20260905192306 28 4 8.0 14.5 0.00 0.00 0.00 73 1017.3
20260905192204 28 6 8.0 14.5 0.00 0.00 0.00 73 1017.3
20260905192104 28 6 8.0 14.5 0.00 0.00 0.00 73 1017.2
20260905192004 28 7 8.0 14.5 0.00 0.00 0.00 72 1017.3
20260905191919 28 5 8.0 14.5 0.00 0.00 0.00 72 1017.3
20260905191807 28 7 8.0 12.9 0.00 0.00 0.00 72 1017.1
20260905191711 28 7 8.0 14.5 0.00 0.00 0.00 72 1017.1
20260905191619 28 4 8.0 16.1 0.00 0.00 0.00 72 1017.2
20260905191504 28 5 8.0 16.1 0.00 0.00 0.00 72 1017.2
20260905191405 28 7 6.4 16.1 0.00 0.00 0.00 72 1017.2
20260905191305 28 6 6.4 16.1 0.00 0.00 0.00 72 1017.2
20260905191204 28 4 6.4 16.1 0.00 0.00 0.00 72 1017.2
20260905191104 28 5 8.0 16.1 0.00 0.00 0.00 72 1017.2
20260905191005 28 7 8.0 16.1 0.00 0.00 0.00 72 1017.1
20260905190904 28 12 8.0 16.1 0.00 0.00 0.00 72 1017.1
20260905190804 28 12 8.0 16.1 0.00 0.00 0.00 72 1017.1
20260905190704 28 12 8.0 16.1 0.00 0.00 0.00 73 1017.1
20260905190604 28 11 8.0 16.1 0.00 0.00 0.00 72 1017.0
20260905190505 28 12 8.0 16.1 0.00 0.00 0.00 72 1017.0
20260905190421 28 9 8.0 16.1 0.00 0.00 0.00 72 1017.0
20260905190320 28 12 8.0 16.1 0.00 0.00 0.00 73 1017.0
20260905190208 28 13 8.0 16.1 0.00 0.00 0.00 73 1016.9
20260905190126 28 15 8.0 16.1 0.00 0.00 0.00 73 1016.9
20260905190005 28 13 9.7 16.1 0.00 0.00 0.00 72 1017.0
20260905185904 28 9 9.7 16.1 0.00 0.00 0.00 73 1017.0
20260905185804 28 8 9.7 16.1 0.00 0.00 0.00 73 1017.1
20260905185704 28 9 9.7 16.1 0.00 0.00 0.00 73 1017.0
20260905185604 28 10 9.7 16.1 0.00 0.00 0.00 73 1017.0
20260905185504 28 11 9.7 16.1 0.00 0.00 0.00 73 1017.1
20260905185404 28 15 9.7 17.7 0.00 0.00 0.00 73 1017.1
20260905185306 28 15 8.0 17.7 0.00 0.00 0.00 73 1017.1
20260905185204 28 19 8.0 17.7 0.00 0.00 0.00 73 1017.0
20260905185104 28 17 8.0 17.7 0.00 0.00 0.00 73 1017.0
20260905185004 28 21 8.0 17.7 0.00 0.00 0.00 73 1017.0
20260905184910 28 23 8.0 17.7 0.00 0.00 0.00 73 1017.0
20260905184814 28 25 8.0 17.7 0.00 0.00 0.00 73 1017.0
20260905184718 28 25 8.0 17.7 0.00 0.00 0.00 72 1016.9
20260905184630 28 27 8.0 17.7 0.00 0.00 0.00 72 1016.9
20260905184504 28 25 6.4 17.7 0.00 0.00 0.00 72 1017.0
20260905184404 28 23 6.4 17.7 0.00 0.00 0.00 72 1016.9
20260905184304 28 22 6.4 17.7 0.00 0.00 0.00 73 1016.9
20260905184204 28 20 6.4 17.7 0.00 0.00 0.00 73 1016.9
20260905184104 28 21 6.4 17.7 0.00 0.00 0.00 72 1016.9
20260905184004 28 19 6.4 17.7 0.00 0.00 0.00 72 1016.9
20260905183904 28 18 6.4 17.7 0.00 0.00 0.00 72 1016.8
20260905183804 28 15 6.4 14.5 0.00 0.00 0.00 73 1016.8
20260905183704 28 15 6.4 14.5 0.00 0.00 0.00 73 1016.9
20260905183604 28 14 6.4 16.1 0.00 0.00 0.00 73 1016.9
20260905183504 28 14 6.4 16.1 0.00 0.00 0.00 73 1016.8
20260905183411 28 10 6.4 16.1 0.00 0.00 0.00 73 1016.8
20260905183315 28 8 6.4 16.1 0.00 0.00 0.00 73 1016.8
20260905183221 28 9 6.4 16.1 0.00 0.00 0.00 73 1016.9
20260905183124 28 7 6.4 16.1 0.00 0.00 0.00 73 1016.9
20260905183004 28 4 6.4 16.1 0.00 0.00 0.00 73 1016.8
20260905182904 28 4 6.4 16.1 0.00 0.00 0.00 73 1016.8
20260905182807 28 4 6.4 16.1 0.00 0.00 0.00 73 1016.8
20260905182704 28 6 6.4 16.1 0.00 0.00 0.00 72 1016.7
20260905182604 28 6 6.4 14.5 0.00 0.00 0.00 73 1016.8
20260905182504 28 5 6.4 14.5 0.00 0.00 0.00 72 1016.8
20260905182404 28 6 6.4 14.5 0.00 0.00 0.00 72 1016.7
20260905182305 28 5 6.4 12.9 0.00 0.00 0.00 73 1016.7
20260905182204 28 4 6.4 12.9 0.00 0.00 0.00 73 1016.7
20260905182104 28 6 6.4 12.9 0.00 0.00 0.00 73 1016.7
20260905182004 28 5 6.4 12.9 0.00 0.00 0.00 73 1016.7
20260905181913 28 6 6.4 12.9 0.00 0.00 0.00 73 1016.7
20260905181814 28 9 6.4 12.9 0.00 0.00 0.00 73 1016.7
20260905181708 28 8 6.4 12.9 0.00 0.00 0.00 73 1016.7
20260905181618 28 10 6.4 14.5 0.00 0.00 0.00 73 1016.7
20260905181503 28 12 6.4 14.5 0.00 0.00 0.00 73 1016.7
20260905181404 28 14 6.4 14.5 0.00 0.00 0.00 73 1016.7
20260905181305 28 13 6.4 14.5 0.00 0.00 0.00 72 1016.7
20260905181205 28 11 6.4 14.5 0.00 0.00 0.00 72 1016.7
20260905181104 28 10 6.4 14.5 0.00 0.00 0.00 72 1016.6
20260905181005 28 13 6.4 14.5 0.00 0.00 0.00 72 1016.6
20260905180906 28 12 6.4 14.5 0.00 0.00 0.00 72 1016.6
20260905180805 28 10 6.4 14.5 0.00 0.00 0.00 72 1016.6
20260905180704 28 8 6.4 14.5 0.00 0.00 0.00 72 1016.6
20260905180605 28 360 6.4 14.5 0.00 0.00 0.00 72 1016.7
20260905180505 28 1 6.4 14.5 0.00 0.00 0.00 72 1016.7
20260905180414 28 1 6.4 14.5 0.00 0.00 0.00 72 1016.7
20260905180319 28 2 6.4 14.5 0.00 0.00 0.00 72 1016.6
20260905180224 28 4 6.4 14.5 0.00 0.00 0.00 72 1016.6
20260905180120 28 4 6.4 14.5 0.00 0.00 0.00 72 1016.5
20260905180005 28 5 6.4 14.5 0.00 0.00 0.00 72 1016.5
20260905175905 28 3 6.4 14.5 0.00 0.00 0.00 72 1016.5
20260905175804 28 1 6.4 14.5 0.00 0.00 0.00 72 1016.6
20260905175704 28 1 6.4 14.5 0.00 0.00 0.00 72 1016.6
20260905175604 28 7 6.4 14.5 0.00 0.00 0.00 71 1016.5
20260905175505 28 6 6.4 14.5 0.00 0.00 0.00 71 1016.5
20260905175404 28 6 6.4 14.5 0.00 0.00 0.00 71 1016.5
20260905175306 28 3 6.4 14.5 0.00 0.00 0.00 71 1016.5
20260905175204 28 1 6.4 14.5 0.00 0.00 0.00 71 1016.5
20260905175105 28 359 6.4 14.5 0.00 0.00 0.00 71 1016.5
20260905175005 28 359 6.4 14.5 0.00 0.00 0.00 71 1016.5
20260905174914 28 360 6.4 14.5 0.00 0.00 0.00 71 1016.5
20260905174814 28 358 6.4 14.5 0.00 0.00 0.00 71 1016.5
20260905174706 28 355 6.4 14.5 0.00 0.00 0.00 70 1016.5
20260905174618 28 352 6.4 14.5 0.00 0.00 0.00 70 1016.5
20260905174504 28 346 6.4 14.5 0.00 0.00 0.00 70 1016.5
20260905174404 28 344 6.4 12.9 0.00 0.00 0.00 70 1016.5
20260905174304 28 347 6.4 12.9 0.00 0.00 0.00 70 1016.5
20260905174204 28 349 6.4 14.5 0.00 0.00 0.00 70 1016.5
20260905174104 28 351 6.4 14.5 0.00 0.00 0.00 70 1016.5
20260905174005 28 347 6.4 14.5 0.00 0.00 0.00 70 1016.5
20260905173904 28 348 6.4 14.5 0.00 0.00 0.00 70 1016.5
20260905173804 28 353 6.4 14.5 0.00 0.00 0.00 70 1016.5
20260905173705 28 355 6.4 14.5 0.00 0.00 0.00 69 1016.8
20260905173604 28 356 6.4 14.5 0.00 0.00 0.00 69 1016.8
20260905173504 28 1 8.0 14.5 0.00 0.00 0.00 69 1016.6
20260905173412 28 360 8.0 14.5 0.00 0.00 0.00 69 1016.6
20260905173315 28 360 8.0 14.5 0.00 0.00 0.00 69 1016.5
20260905173207 28 360 8.0 14.5 0.00 0.00 0.00 69 1016.5
20260905173131 28 4 8.0 17.7 0.00 0.00 0.00 69 1016.5
20260905173004 28 6 8.0 17.7 0.00 0.00 0.00 68 1016.5
20260905172904 28 6 8.0 17.7 0.00 0.00 0.00 68 1016.5
20260905172804 28 5 8.0 17.7 0.00 0.00 0.00 68 1016.4
20260905172704 28 3 8.0 17.7 0.00 0.00 0.00 68 1016.3
20260905172605 28 3 8.0 17.7 0.00 0.00 0.00 68 1016.3
20260905172504 28 359 8.0 17.7 0.00 0.00 0.00 68 1016.4
20260905172405 28 359 8.0 17.7 0.00 0.00 0.00 68 1016.3
20260905172305 28 359 8.0 17.7 0.00 0.00 0.00 68 1016.3
20260905172204 29 360 8.0 17.7 0.00 0.00 0.00 68 1016.3
20260905172105 29 356 8.0 17.7 0.00 0.00 0.00 67 1016.3
20260905172004 28 358 8.0 17.7 0.00 0.00 0.00 67 1016.3
20260905171922 29 360 8.0 17.7 0.00 0.00 0.00 67 1016.3
20260905171807 29 1 8.0 17.7 0.00 0.00 0.00 67 1016.3
20260905171714 29 1 8.0 17.7 0.00 0.00 0.00 67 1016.3
20260905171628 29 359 8.0 17.7 0.00 0.00 0.00 67 1016.3
20260905171504 29 3 8.0 17.7 0.00 0.00 0.00 66 1016.3
20260905171404 29 2 8.0 17.7 0.00 0.00 0.00 66 1016.4
20260905171304 29 359 8.0 17.7 0.00 0.00 0.00 66 1016.4
20260905171204 29 357 8.0 17.7 0.00 0.00 0.00 66 1016.4
20260905171104 29 1 8.0 17.7 0.00 0.00 0.00 66 1016.4
20260905171004 29 360 8.0 17.7 0.00 0.00 0.00 66 1016.3
20260905170904 29 1 8.0 17.7 0.00 0.00 0.00 66 1016.3
20260905170804 29 358 8.0 17.7 0.00 0.00 0.00 66 1016.3
20260905170704 29 358 8.0 17.7 0.00 0.00 0.00 66 1016.2
20260905170604 29 360 8.0 16.1 0.00 0.00 0.00 66 1016.2
20260905170504 29 358 8.0 16.1 0.00 0.00 0.00 66 1016.2
20260905170419 29 358 8.0 16.1 0.00 0.00 0.00 66 1016.2
20260905170318 29 1 8.0 16.1 0.00 0.00 0.00 66 1016.2
20260905170220 29 6 8.0 16.1 0.00 0.00 0.00 65 1016.2
20260905170117 29 4 8.0 16.1 0.00 0.00 0.00 65 1016.2
20260905170004 29 5 8.0 16.1 0.00 0.00 0.00 65 1016.2
20260905165904 29 1 8.0 16.1 0.00 0.00 0.00 65 1016.2
20260905165804 29 1 8.0 16.1 0.00 0.00 0.00 65 1016.2
20260905165704 29 3 8.0 14.5 0.00 0.00 0.00 65 1016.3
20260905165604 29 2 8.0 14.5 0.00 0.00 0.00 65 1016.2
20260905165505 29 1 8.0 14.5 0.00 0.00 0.00 65 1016.2
20260905165404 29 1 8.0 14.5 0.00 0.00 0.00 65 1016.2
20260905165306 29 3 8.0 16.1 0.00 0.00 0.00 65 1016.2
20260905165204 29 4 8.0 16.1 0.00 0.00 0.00 65 1016.2
20260905165104 29 5 9.7 16.1 0.00 0.00 0.00 65 1016.2
20260905165004 30 3 9.7 16.1 0.00 0.00 0.00 65 1016.2
20260905164921 30 3 9.7 16.1 0.00 0.00 0.00 65 1016.2
20260905164806 30 5 9.7 16.1 0.00 0.00 0.00 64 1016.2
20260905164710 30 8 9.7 16.1 0.00 0.00 0.00 64 1016.2
20260905164625 30 14 9.7 16.1 0.00 0.00 0.00 64 1016.1
20260905164504 30 22 9.7 16.1 0.00 0.00 0.00 63 1016.1
20260905164404 30 20 9.7 16.1 0.00 0.00 0.00 63 1016.2
20260905164304 30 18 9.7 16.1 0.00 0.00 0.00 63 1016.2
20260905164204 30 14 9.7 16.1 0.00 0.00 0.00 63 1016.2
20260905164104 30 12 8.0 16.1 0.00 0.00 0.00 63 1016.2
20260905164004 30 12 8.0 16.1 0.00 0.00 0.00 63 1016.2
20260905163904 30 11 8.0 16.1 0.00 0.00 0.00 63 1016.1
20260905163804 30 8 8.0 16.1 0.00 0.00 0.00 63 1016.3
20260905163704 30 7 8.0 16.1 0.00 0.00 0.00 63 1016.3
20260905163604 30 5 8.0 17.7 0.00 0.00 0.00 63 1016.2
20260905163504 30 1 8.0 17.7 0.00 0.00 0.00 62 1016.2
20260905163424 30 2 8.0 17.7 0.00 0.00 0.00 62 1016.2
20260905163320 30 7 8.0 17.7 0.00 0.00 0.00 61 1016.2
20260905163212 30 10 8.0 17.7 0.00 0.00 0.00 62 1016.2
20260905163132 30 12 8.0 17.7 0.00 0.00 0.00 61 1016.2
20260905163004 30 9 8.0 17.7 0.00 0.00 0.00 61 1016.2
20260905162904 30 11 8.0 17.7 0.00 0.00 0.00 62 1016.2
20260905162804 30 15 8.0 17.7 0.00 0.00 0.00 62 1016.3
20260905162704 30 15 8.0 17.7 0.00 0.00 0.00 62 1016.3
20260905162609 30 14 8.0 17.7 0.00 0.00 0.00 62 1016.3
20260905162504 30 13 8.0 17.7 0.00 0.00 0.00 62 1016.2
20260905162404 30 13 8.0 17.7 0.00 0.00 0.00 62 1016.2
20260905162306 30 9 8.0 17.7 0.00 0.00 0.00 61 1016.2
20260905162204 30 9 8.0 17.7 0.00 0.00 0.00 61 1016.2
20260905162104 30 6 8.0 17.7 0.00 0.00 0.00 60 1016.3
20260905162004 30 6 9.7 17.7 0.00 0.00 0.00 61 1016.2
20260905161911 30 6 9.7 17.7 0.00 0.00 0.00 62 1016.2
20260905161816 30 6 9.7 17.7 0.00 0.00 0.00 61 1016.2
20260905161716 30 8 9.7 16.1 0.00 0.00 0.00 62 1016.2
20260905161620 30 12 9.7 16.1 0.00 0.00 0.00 62 1016.2
20260905161504 30 17 9.7 16.1 0.00 0.00 0.00 62 1016.2
20260905161404 30 21 9.7 16.1 0.00 0.00 0.00 62 1016.2
20260905161304 30 24 9.7 16.1 0.00 0.00 0.00 62 1016.2
20260905161204 30 24 9.7 17.7 0.00 0.00 0.00 62 1016.3
20260905161104 30 28 9.7 17.7 0.00 0.00 0.00 63 1016.3
20260905161004 30 31 9.7 17.7 0.00 0.00 0.00 64 1016.3
20260905160904 30 33 9.7 17.7 0.00 0.00 0.00 67 1016.3
20260905160804 30 33 9.7 17.7 0.00 0.00 0.00 68 1016.3
20260905160704 30 32 9.7 17.7 0.00 0.00 0.00 65 1016.3
20260905160604 30 30 9.7 19.3 0.00 0.00 0.00 66 1016.3
20260905160504 30 29 8.0 19.3 0.00 0.00 0.00 70 1016.3
20260905160413 30 27 8.0 19.3 0.00 0.00 0.00 70 1016.3
20260905160309 30 27 8.0 19.3 0.00 0.00 0.00 69 1016.3
20260905160218 30 26 8.0 19.3 0.00 0.00 0.00 69 1016.4
20260905160121 30 25 8.0 19.3 0.00 0.00 0.00 68 1016.4
20260905160004 30 26 8.0 19.3 0.00 0.00 0.00 70 1016.3
20260905155904 30 25 8.0 19.3 0.00 0.00 0.00 70 1016.3
20260905155804 30 25 8.0 19.3 0.00 0.00 0.00 69 1016.3
20260905155704 30 22 9.7 19.3 0.00 0.00 0.00 69 1016.2
20260905155604 30 18 9.7 19.3 0.00 0.00 0.00 70 1016.2
20260905155504 30 17 9.7 19.3 0.00 0.00 0.00 69 1016.2
20260905155403 30 20 9.7 19.3 0.00 0.00 0.00 70 1016.2
20260905155306 30 20 9.7 16.1 0.00 0.00 0.00 70 1016.2
20260905155204 30 21 11.3 16.1 0.00 0.00 0.00 70 1016.2
20260905155104 30 17 11.3 16.1 0.00 0.00 0.00 71 1016.2
20260905155005 30 15 11.3 16.1 0.00 0.00 0.00 70 1016.2
20260905154911 30 16 11.3 16.1 0.00 0.00 0.00 70 1016.2
20260905154816 30 18 11.3 16.1 0.00 0.00 0.00 70 1016.2
20260905154707 30 19 11.3 17.7 0.00 0.00 0.00 70 1016.3
20260905154615 30 20 11.3 19.3 0.00 0.00 0.00 70 1016.3
20260905154504 30 20 11.3 19.3 0.00 0.00 0.00 70 1016.3
20260905154206 30 17 11.3 19.3 0.00 0.00 0.00 70 1016.3
20260905154104 30 19 11.3 19.3 0.00 0.00 0.00 70 1016.3
20260905154005 30 20 11.3 19.3 0.00 0.00 0.00 70 1016.3
20260905153905 30 19 11.3 19.3 0.00 0.00 0.00 70 1016.3
20260905153804 30 20 9.7 19.3 0.00 0.00 0.00 69 1016.3
20260905153704 30 20 9.7 19.3 0.00 0.00 0.00 69 1016.3
20260905153604 30 22 9.7 19.3 0.00 0.00 0.00 69 1016.2
20260905153505 30 25 9.7 19.3 0.00 0.00 0.00 69 1016.2
20260905153407 30 27 9.7 19.3 0.00 0.00 0.00 69 1016.2
20260905153313 30 27 9.7 19.3 0.00 0.00 0.00 68 1016.2
20260905153221 30 28 9.7 19.3 0.00 0.00 0.00 68 1016.2
20260905153120 30 27 9.7 19.3 0.00 0.00 0.00 68 1016.3
20260905153005 30 28 9.7 19.3 0.00 0.00 0.00 68 1016.3
20260905152904 30 29 9.7 19.3 0.00 0.00 0.00 68 1016.2
20260905152804 30 29 9.7 19.3 0.00 0.00 0.00 68 1016.2
20260905152704 30 30 9.7 19.3 0.00 0.00 0.00 68 1016.2
20260905152604 30 27 9.7 19.3 0.00 0.00 0.00 68 1016.2
20260905152505 30 25 9.7 19.3 0.00 0.00 0.00 68 1016.2
20260905152405 30 21 9.7 19.3 0.00 0.00 0.00 68 1016.2
20260905152306 30 20 9.7 19.3 0.00 0.00 0.00 67 1016.2
20260905152204 30 18 9.7 16.1 0.00 0.00 0.00 67 1016.2
20260905152104 30 17 9.7 16.1 0.00 0.00 0.00 67 1016.2
20260905152005 30 15 9.7 16.1 0.00 0.00 0.00 67 1016.2
20260905151905 30 15 9.7 16.1 0.00 0.00 0.00 67 1016.3
20260905151811 30 14 9.7 16.1 0.00 0.00 0.00 67 1016.2
20260905151720 30 12 9.7 16.1 0.00 0.00 0.00 67 1016.2
20260905151621 30 12 9.7 16.1 0.00 0.00 0.00 67 1016.2
20260905151504 30 11 9.7 16.1 0.00 0.00 0.00 66 1016.2
20260905151404 30 14 9.7 16.1 0.00 0.00 0.00 66 1016.3
20260905151304 30 15 9.7 16.1 0.00 0.00 0.00 67 1016.2
20260905151204 30 18 9.7 16.1 0.00 0.00 0.00 67 1016.2
20260905151104 30 21 11.3 19.3 0.00 0.00 0.00 66 1016.2
20260905151005 30 20 11.3 19.3 0.00 0.00 0.00 66 1016.2
20260905150905 30 22 11.3 20.9 0.00 0.00 0.00 66 1016.2
20260905150805 30 22 11.3 25.7 0.00 0.00 0.00 66 1016.2
20260905150704 30 23 11.3 25.7 0.00 0.00 0.00 66 1016.2
20260905150605 30 27 11.3 25.7 0.00 0.00 0.00 66 1016.2
20260905150505 30 30 11.3 25.7 0.00 0.00 0.00 66 1016.2
20260905150410 30 31 11.3 25.7 0.00 0.00 0.00 66 1016.2
20260905150315 30 31 11.3 25.7 0.00 0.00 0.00 66 1016.2
20260905150215 30 30 11.3 25.7 0.00 0.00 0.00 66 1016.2
20260905150119 30 29 11.3 25.7 0.00 0.00 0.00 66 1016.2
20260905150004 30 30 11.3 25.7 0.00 0.00 0.00 66 1016.2
20260905145904 30 33 11.3 25.7 0.00 0.00 0.00 66 1016.2
20260905145804 30 32 11.3 19.3 0.00 0.00 0.00 67 1016.1
20260905145704 30 30 12.9 19.3 0.00 0.00 0.00 68 1016.2
20260905145604 30 29 12.9 20.9 0.00 0.00 0.00 68 1016.2
20260905145504 30 31 12.9 24.1 0.00 0.00 0.00 68 1016.2
20260905145404 30 30 12.9 24.1 0.00 0.00 0.00 68 1016.2
20260905145306 30 33 12.9 24.1 0.00 0.00 0.00 68 1016.2
20260905145204 30 34 12.9 24.1 0.00 0.00 0.00 68 1016.2
20260905145104 30 38 12.9 24.1 0.00 0.00 0.00 68 1016.2
20260905145004 30 38 14.5 24.1 0.00 0.00 0.00 68 1016.2
20260905144910 30 35 14.5 24.1 0.00 0.00 0.00 68 1016.2
20260905144814 30 33 14.5 24.1 0.00 0.00 0.00 69 1016.3
20260905144720 30 35 14.5 24.1 0.00 0.00 0.00 68 1016.2
20260905144620 30 36 14.5 24.1 0.00 0.00 0.00 69 1016.2
20260905144504 30 35 14.5 24.1 0.00 0.00 0.00 69 1016.1
20260905144404 30 38 14.5 24.1 0.00 0.00 0.00 69 1016.1
20260905144304 30 39 14.5 29.0 0.00 0.00 0.00 69 1016.2
20260905144204 30 40 14.5 29.0 0.00 0.00 0.00 68 1016.1
20260905144104 30 37 14.5 29.0 0.00 0.00 0.00 68 1016.1
20260905144004 30 39 14.5 29.0 0.00 0.00 0.00 69 1016.2
20260905143904 30 41 14.5 29.0 0.00 0.00 0.00 69 1016.1
20260905143804 30 44 16.1 29.0 0.00 0.00 0.00 69 1016.1
20260905143705 30 45 16.1 29.0 0.00 0.00 0.00 70 1016.2
20260905143606 30 42 16.1 29.0 0.00 0.00 0.00 69 1016.2
20260905143504 30 41 16.1 29.0 0.00 0.00 0.00 69 1016.2
20260905143407 30 37 16.1 29.0 0.00 0.00 0.00 68 1016.1
20260905143313 30 36 16.1 27.4 0.00 0.00 0.00 67 1016.1
20260905143222 30 34 16.1 24.1 0.00 0.00 0.00 68 1016.2
20260905143125 30 35 17.7 24.1 0.00 0.00 0.00 69 1016.2
20260905143004 30 37 17.7 25.7 0.00 0.00 0.00 69 1016.2
20260905142904 30 36 17.7 25.7 0.00 0.00 0.00 68 1016.3
20260905142804 30 36 17.7 25.7 0.00 0.00 0.00 68 1016.3
20260905142704 30 38 17.7 25.7 0.00 0.00 0.00 68 1016.2
20260905142604 30 43 17.7 25.7 0.00 0.00 0.00 68 1016.2
20260905142504 30 44 17.7 25.7 0.00 0.00 0.00 69 1016.2
20260905142404 30 47 17.7 25.7 0.00 0.00 0.00 68 1016.2
20260905142306 30 47 17.7 25.7 0.00 0.00 0.00 68 1016.2
20260905142204 30 48 19.3 25.7 0.00 0.00 0.00 68 1016.2
20260905142104 30 51 19.3 25.7 0.00 0.00 0.00 68 1016.2
20260905142004 30 53 19.3 29.0 0.00 0.00 0.00 68 1016.2
20260905141907 30 54 19.3 35.4 0.00 0.00 0.00 68 1016.3
20260905141811 30 56 19.3 35.4 0.00 0.00 0.00 69 1016.3
20260905141719 30 56 19.3 35.4 0.00 0.00 0.00 68 1016.2
20260905141620 30 55 17.7 35.4 0.00 0.00 0.00 68 1016.2
20260905141504 30 55 17.7 35.4 0.00 0.00 0.00 68 1016.2
20260905141404 30 53 17.7 35.4 0.00 0.00 0.00 68 1016.2
20260905141304 30 53 17.7 35.4 0.00 0.00 0.00 69 1016.2
20260905141204 30 53 17.7 35.4 0.00 0.00 0.00 69 1016.2
20260905141104 30 51 17.7 35.4 0.00 0.00 0.00 69 1016.1
20260905141004 30 49 17.7 35.4 0.00 0.00 0.00 69 1016.1
20260905140904 30 48 17.7 29.0 0.00 0.00 0.00 70 1016.2
20260905140804 30 47 16.1 29.0 0.00 0.00 0.00 70 1016.2
20260905140704 30 46 17.7 27.4 0.00 0.00 0.00 70 1016.2
20260905140604 30 47 17.7 27.4 0.00 0.00 0.00 70 1016.3
20260905140504 30 48 17.7 27.4 0.00 0.00 0.00 70 1016.3
20260905140415 30 49 17.7 27.4 0.00 0.00 0.00 70 1016.4
20260905140313 30 52 17.7 29.0 0.00 0.00 0.00 70 1016.4
20260905140220 30 51 16.1 29.0 0.00 0.00 0.00 70 1016.3
20260905140121 30 52 16.1 29.0 0.00 0.00 0.00 70 1016.4
20260905140004 30 52 16.1 29.0 0.00 0.00 0.00 70 1016.4
20260905135904 30 51 16.1 29.0 0.00 0.00 0.00 70 1016.4
20260905135804 30 51 16.1 29.0 0.00 0.00 0.00 70 1016.4
20260905135704 30 52 16.1 29.0 0.00 0.00 0.00 70 1016.4
20260905135604 30 52 14.5 29.0 0.00 0.00 0.00 70 1016.4
20260905135504 30 53 14.5 29.0 0.00 0.00 0.00 70 1016.4
20260905135404 30 52 14.5 29.0 0.00 0.00 0.00 70 1016.4
20260905135306 30 50 14.5 27.4 0.00 0.00 0.00 70 1016.3
20260905135204 30 50 14.5 27.4 0.00 0.00 0.00 70 1016.3
20260905135103 30 48 12.9 27.4 0.00 0.00 0.00 70 1016.3
20260905135004 30 50 12.9 27.4 0.00 0.00 0.00 70 1016.4
20260905134913 30 49 12.9 27.4 0.00 0.00 0.00 70 1016.4
20260905134814 30 48 12.9 27.4 0.00 0.00 0.00 70 1016.3
20260905134712 30 45 12.9 27.4 0.00 0.00 0.00 70 1016.3
20260905134620 30 44 12.9 27.4 0.00 0.00 0.00 70 1016.2
20260905134504 30 42 11.3 25.7 0.00 0.00 0.00 70 1016.3
20260905134404 30 39 12.9 25.7 0.00 0.00 0.00 70 1016.3
20260905134304 30 40 11.3 25.7 0.00 0.00 0.00 70 1016.4
20260905134204 30 39 11.3 25.7 0.00 0.00 0.00 69 1016.4
20260905134104 30 40 11.3 25.7 0.00 0.00 0.00 68 1016.4
20260905134004 30 38 11.3 22.5 0.00 0.00 0.00 69 1016.3
20260905133904 30 40 11.3 22.5 0.00 0.00 0.00 69 1016.3
20260905133805 30 40 11.3 22.5 0.00 0.00 0.00 69 1016.3
20260905133704 30 40 11.3 22.5 0.00 0.00 0.00 69 1016.3
20260905133604 30 38 11.3 24.1 0.00 0.00 0.00 68 1016.4
20260905133504 30 38 11.3 24.1 0.00 0.00 0.00 68 1016.5
20260905133419 30 38 11.3 24.1 0.00 0.00 0.00 68 1016.5
20260905133308 30 37 11.3 25.7 0.00 0.00 0.00 69 1016.3
20260905133206 30 36 11.3 25.7 0.00 0.00 0.00 69 1016.4
20260905133127 30 35 11.3 25.7 0.00 0.00 0.00 69 1016.4
20260905133004 30 36 11.3 25.7 0.00 0.00 0.00 69 1016.3
20260905132904 30 36 11.3 25.7 0.00 0.00 0.00 69 1016.3
20260905132804 30 39 11.3 25.7 0.00 0.00 0.00 69 1016.5
20260905132704 30 37 11.3 25.7 0.00 0.00 0.00 69 1016.5
20260905132604 30 37 12.9 25.7 0.00 0.00 0.00 68 1016.5
20260905132505 30 36 12.9 25.7 0.00 0.00 0.00 68 1016.4
20260905132403 30 34 12.9 25.7 0.00 0.00 0.00 68 1016.4
20260905132305 30 36 12.9 24.1 0.00 0.00 0.00 69 1016.5
20260905132203 30 37 14.5 24.1 0.00 0.00 0.00 69 1016.4
20260905132103 30 36 14.5 24.1 0.00 0.00 0.00 69 1016.4
20260905132004 30 35 14.5 24.1 0.00 0.00 0.00 69 1016.6
20260905131911 30 35 14.5 24.1 0.00 0.00 0.00 68 1016.6
20260905131814 30 32 14.5 24.1 0.00 0.00 0.00 69 1016.6
20260905131712 30 34 16.1 24.1 0.00 0.00 0.00 69 1016.6
20260905131625 30 35 16.1 24.1 0.00 0.00 0.00 69 1016.6
20260905131505 30 39 16.1 29.0 0.00 0.00 0.00 69 1016.5
20260905131404 30 41 16.1 29.0 0.00 0.00 0.00 69 1016.6
20260905131304 30 43 16.1 29.0 0.00 0.00 0.00 69 1016.6
20260905131205 30 44 16.1 29.0 0.00 0.00 0.00 69 1016.6
20260905131105 30 43 16.1 29.0 0.00 0.00 0.00 69 1016.6
20260905131006 30 43 17.7 29.0 0.00 0.00 0.00 70 1016.5
20260905130904 30 43 17.7 29.0 0.00 0.00 0.00 70 1016.6
20260905130805 30 44 17.7 29.0 0.00 0.00 0.00 69 1016.6
20260905130704 30 46 16.1 29.0 0.00 0.00 0.00 69 1016.6
20260905130605 30 44 16.1 29.0 0.00 0.00 0.00 69 1016.6
20260905130505 30 44 17.7 25.7 0.00 0.00 0.00 69 1016.8
20260905130416 30 43 17.7 27.4 0.00 0.00 0.00 69 1016.7
20260905130315 30 41 17.7 27.4 0.00 0.00 0.00 70 1016.7
20260905130218 30 39 17.7 27.4 0.00 0.00 0.00 69 1016.7
20260905130122 30 39 17.7 27.4 0.00 0.00 0.00 69 1016.7
20260905130005 30 41 17.7 27.4 0.00 0.00 0.00 69 1016.7
20260905125904 30 41 17.7 27.4 0.00 0.00 0.00 70 1016.8
20260905125805 30 40 17.7 27.4 0.00 0.00 0.00 69 1016.8
20260905125704 30 40 17.7 27.4 0.00 0.00 0.00 69 1016.7
20260905125604 30 42 19.3 27.4 0.00 0.00 0.00 69 1016.7
20260905125506 30 46 19.3 33.8 0.00 0.00 0.00 69 1016.7
20260905125404 30 49 17.7 33.8 0.00 0.00 0.00 69 1016.8
20260905125306 30 51 17.7 33.8 0.00 0.00 0.00 69 1016.8
20260905125204 30 50 17.7 33.8 0.00 0.00 0.00 69 1016.7
20260905125104 30 49 17.7 33.8 0.00 0.00 0.00 69 1016.8
20260905125005 30 48 17.7 33.8 0.00 0.00 0.00 69 1016.8
20260905124911 30 48 16.1 33.8 0.00 0.00 0.00 69 1016.8
20260905124813 30 48 16.1 33.8 0.00 0.00 0.00 69 1016.8
20260905124723 30 46 16.1 33.8 0.00 0.00 0.00 68 1016.7
20260905124626 30 45 14.5 33.8 0.00 0.00 0.00 68 1016.8
20260905124505 30 42 14.5 32.2 0.00 0.00 0.00 68 1016.8
20260905124404 30 38 14.5 30.6 0.00 0.00 0.00 68 1016.7
20260905124304 30 36 14.5 30.6 0.00 0.00 0.00 68 1016.8
20260905124205 30 36 14.5 25.7 0.00 0.00 0.00 68 1016.8
20260905124104 30 39 14.5 25.7 0.00 0.00 0.00 68 1017.0
20260905124005 30 43 14.5 25.7 0.00 0.00 0.00 68 1017.0
20260905123905 30 44 14.5 30.6 0.00 0.00 0.00 67 1016.8
20260905123808 30 43 14.5 30.6 0.00 0.00 0.00 68 1016.9
20260905123704 30 45 16.1 30.6 0.00 0.00 0.00 68 1016.9
20260905123604 30 43 16.1 30.6 0.00 0.00 0.00 68 1016.8
20260905123504 30 43 16.1 30.6 0.00 0.00 0.00 68 1016.8
20260905123408 30 43 16.1 30.6 0.00 0.00 0.00 69 1016.8
20260905123313 30 45 16.1 30.6 0.00 0.00 0.00 69 1016.8
20260905123220 30 45 16.1 30.6 0.00 0.00 0.00 68 1016.8
20260905123126 30 46 16.1 30.6 0.00 0.00 0.00 68 1016.8
20260905123005 30 44 16.1 30.6 0.00 0.00 0.00 68 1016.8
20260905122904 30 43 16.1 30.6 0.00 0.00 0.00 67 1016.8
20260905122804 30 43 16.1 30.6 0.00 0.00 0.00 68 1016.8
20260905122704 30 42 16.1 30.6 0.00 0.00 0.00 69 1016.8
20260905122604 30 43 16.1 30.6 0.00 0.00 0.00 69 1016.8
20260905122504 30 42 16.1 30.6 0.00 0.00 0.00 69 1016.8
20260905122404 30 42 14.5 30.6 0.00 0.00 0.00 69 1016.8
20260905122306 30 44 14.5 30.6 0.00 0.00 0.00 69 1016.9
20260905122204 30 44 14.5 30.6 0.00 0.00 0.00 69 1016.9
20260905122104 30 43 14.5 30.6 0.00 0.00 0.00 68 1016.9
20260905122004 30 42 14.5 30.6 0.00 0.00 0.00 68 1016.8
20260905121904 30 41 14.5 30.6 0.00 0.00 0.00 68 1016.8
20260905121810 30 39 14.5 30.6 0.00 0.00 0.00 68 1016.9
20260905121718 30 39 14.5 30.6 0.00 0.00 0.00 68 1016.9
20260905121620 30 40 14.5 30.6 0.00 0.00 0.00 67 1016.9
20260905121504 30 42 14.5 30.6 0.00 0.00 0.00 67 1016.9
20260905121404 30 42 14.5 30.6 0.00 0.00 0.00 67 1016.9
20260905121304 30 39 14.5 30.6 0.00 0.00 0.00 67 1016.8
20260905121204 30 39 14.5 25.7 0.00 0.00 0.00 67 1017.0
20260905121104 30 40 14.5 25.7 0.00 0.00 0.00 68 1017.0
20260905121005 30 41 14.5 27.4 0.00 0.00 0.00 67 1016.9
20260905120904 30 39 14.5 27.4 0.00 0.00 0.00 67 1016.9
20260905120804 30 42 14.5 27.4 0.00 0.00 0.00 67 1017.0
20260905120704 30 43 12.9 27.4 0.00 0.00 0.00 67 1016.9
20260905120604 30 43 12.9 27.4 0.00 0.00 0.00 67 1016.9
20260905120504 30 41 12.9 27.4 0.00 0.00 0.00 68 1016.9
20260905120411 30 39 12.9 27.4 0.00 0.00 0.00 68 1016.9
20260905120315 30 38 12.9 27.4 0.00 0.00 0.00 68 1017.0
20260905120205 30 39 12.9 27.4 0.00 0.00 0.00 67 1017.0
20260905120120 30 39 12.9 27.4 0.00 0.00 0.00 67 1017.0
20260905120004 30 37 12.9 27.4 0.00 0.00 0.00 67 1017.0
20260905115904 30 37 12.9 27.4 0.00 0.00 0.00 68 1017.0
20260905115804 30 37 14.5 27.4 0.00 0.00 0.00 68 1017.0
20260905115704 30 38 14.5 27.4 0.00 0.00 0.00 68 1017.1
20260905115604 30 37 14.5 27.4 0.00 0.00 0.00 67 1017.1
20260905115504 30 37 14.5 27.4 0.00 0.00 0.00 67 1017.1
20260905115404 30 39 14.5 27.4 0.00 0.00 0.00 67 1017.0
20260905115306 30 41 14.5 27.4 0.00 0.00 0.00 67 1017.0
20260905115204 30 39 14.5 25.7 0.00 0.00 0.00 67 1017.0
20260905115104 30 41 14.5 29.0 0.00 0.00 0.00 67 1017.0
20260905115004 30 42 14.5 29.0 0.00 0.00 0.00 67 1017.1
20260905114917 30 43 14.5 29.0 0.00 0.00 0.00 67 1017.1
20260905114816 30 43 14.5 29.0 0.00 0.00 0.00 67 1017.0
20260905114706 30 42 14.5 29.0 0.00 0.00 0.00 67 1017.1
20260905114623 30 43 14.5 29.0 0.00 0.00 0.00 67 1017.1
20260905114504 30 43 14.5 29.0 0.00 0.00 0.00 67 1017.1
20260905114404 30 42 14.5 29.0 0.00 0.00 0.00 67 1017.1
20260905114304 30 41 14.5 29.0 0.00 0.00 0.00 67 1017.1
20260905114204 30 41 14.5 29.0 0.00 0.00 0.00 67 1017.1
20260905114104 30 38 14.5 22.5 0.00 0.00 0.00 67 1017.1
20260905114004 30 36 14.5 22.5 0.00 0.00 0.00 67 1017.1
20260905113904 30 37 14.5 24.1 0.00 0.00 0.00 66 1017.1
20260905113804 30 39 16.1 24.1 0.00 0.00 0.00 67 1017.1
20260905113704 30 38 16.1 24.1 0.00 0.00 0.00 66 1017.2
20260905113604 30 39 16.1 24.1 0.00 0.00 0.00 66 1017.1
20260905113504 30 39 16.1 24.1 0.00 0.00 0.00 65 1017.1
20260905113409 30 40 16.1 24.1 0.00 0.00 0.00 66 1017.0
20260905113309 30 41 16.1 24.1 0.00 0.00 0.00 66 1017.0
20260905113216 30 42 16.1 24.1 0.00 0.00 0.00 66 1017.1
20260905113120 30 43 16.1 24.1 0.00 0.00 0.00 66 1017.1
20260905113005 30 44 16.1 24.1 0.00 0.00 0.00 66 1017.1
20260905112904 30 45 16.1 27.4 0.00 0.00 0.00 66 1017.1
20260905112804 30 45 16.1 27.4 0.00 0.00 0.00 66 1017.1
20260905112704 30 45 16.1 27.4 0.00 0.00 0.00 66 1017.1
20260905112604 30 47 14.5 27.4 0.00 0.00 0.00 66 1017.1
20260905112504 30 48 14.5 27.4 0.00 0.00 0.00 66 1017.1
20260905112404 30 48 14.5 27.4 0.00 0.00 0.00 66 1017.2
20260905112305 30 46 14.5 27.4 0.00 0.00 0.00 66 1017.2
20260905112204 30 47 12.9 27.4 0.00 0.00 0.00 65 1017.2
20260905112104 30 48 12.9 27.4 0.00 0.00 0.00 65 1017.2
20260905112004 31 46 12.9 27.4 0.00 0.00 0.00 65 1017.2
20260905111906 31 44 12.9 27.4 0.00 0.00 0.00 65 1017.1
20260905111811 31 40 12.9 25.7 0.00 0.00 0.00 64 1017.3
20260905111717 31 40 12.9 25.7 0.00 0.00 0.00 64 1017.3
20260905111620 31 36 14.5 22.5 0.00 0.00 0.00 65 1017.2
20260905111504 31 30 14.5 20.9 0.00 0.00 0.00 65 1017.2
20260905111404 31 30 14.5 20.9 0.00 0.00 0.00 65 1017.0
20260905111304 31 32 14.5 22.5 0.00 0.00 0.00 65 1017.1
20260905111204 31 33 14.5 22.5 0.00 0.00 0.00 65 1017.1
20260905111104 31 33 14.5 24.1 0.00 0.00 0.00 65 1017.1
20260905111004 31 35 14.5 27.4 0.00 0.00 0.00 65 1017.1
20260905110904 30 37 14.5 27.4 0.00 0.00 0.00 65 1017.1
20260905110804 30 38 14.5 27.4 0.00 0.00 0.00 65 1017.1
20260905110704 30 37 14.5 27.4 0.00 0.00 0.00 65 1017.1
20260905110604 30 38 14.5 27.4 0.00 0.00 0.00 66 1017.2
20260905110504 30 37 14.5 27.4 0.00 0.00 0.00 66 1017.2
20260905110418 30 36 14.5 27.4 0.00 0.00 0.00 66 1017.2
20260905110321 30 34 14.5 27.4 0.00 0.00 0.00 66 1017.2
20260905110207 30 34 14.5 27.4 0.00 0.00 0.00 66 1017.2
20260905110124 30 34 16.1 27.4 0.00 0.00 0.00 65 1017.1
20260905110004 30 34 16.1 25.7 0.00 0.00 0.00 66 1017.1
20260905105904 30 32 16.1 25.7 0.00 0.00 0.00 66 1017.1
20260905105804 30 34 16.1 25.7 0.00 0.00 0.00 65 1017.1
20260905105704 30 40 16.1 29.0 0.00 0.00 0.00 66 1017.1
20260905105604 30 42 16.1 29.0 0.00 0.00 0.00 66 1017.2
20260905105504 30 44 16.1 29.0 0.00 0.00 0.00 66 1017.0
20260905105403 30 47 16.1 29.0 0.00 0.00 0.00 65 1017.0
20260905105306 30 48 16.1 29.0 0.00 0.00 0.00 65 1017.1
20260905105204 30 47 16.1 29.0 0.00 0.00 0.00 65 1017.0
20260905105104 30 47 16.1 29.0 0.00 0.00 0.00 65 1017.0
20260905105004 30 46 16.1 29.0 0.00 0.00 0.00 64 1017.0
20260905104911 30 46 16.1 29.0 0.00 0.00 0.00 65 1017.0
20260905104820 30 45 16.1 29.0 0.00 0.00 0.00 65 1017.1
20260905104712 30 43 16.1 25.7 0.00 0.00 0.00 65 1017.1
20260905104626 30 41 14.5 24.1 0.00 0.00 0.00 65 1017.1
20260905104505 30 41 14.5 25.7 0.00 0.00 0.00 65 1017.0
20260905104405 30 39 16.1 25.7 0.00 0.00 0.00 65 1017.0
20260905104304 30 37 16.1 27.4 0.00 0.00 0.00 65 1016.9
20260905104205 30 38 16.1 27.4 0.00 0.00 0.00 65 1016.9
20260905104105 30 39 16.1 27.4 0.00 0.00 0.00 66 1016.9
20260905104005 30 38 16.1 27.4 0.00 0.00 0.00 66 1017.0
20260905103905 30 36 16.1 27.4 0.00 0.00 0.00 66 1017.0
20260905103804 30 35 16.1 27.4 0.00 0.00 0.00 66 1016.9
20260905103704 30 32 16.1 27.4 0.00 0.00 0.00 66 1016.9
20260905103605 30 31 16.1 27.4 0.00 0.00 0.00 66 1016.9
20260905103504 30 32 17.7 27.4 0.00 0.00 0.00 66 1017.0
20260905103420 30 33 17.7 27.4 0.00 0.00 0.00 66 1017.0
20260905103319 30 37 17.7 27.4 0.00 0.00 0.00 66 1016.9
20260905103208 30 36 17.7 25.7 0.00 0.00 0.00 66 1017.0
20260905103120 30 38 17.7 25.7 0.00 0.00 0.00 66 1017.0
20260905103004 30 40 17.7 25.7 0.00 0.00 0.00 66 1017.0
20260905102904 30 43 17.7 25.7 0.00 0.00 0.00 66 1017.1
20260905102805 30 43 16.1 25.7 0.00 0.00 0.00 66 1017.1
20260905102704 30 45 16.1 25.7 0.00 0.00 0.00 66 1017.2
20260905102604 30 47 16.1 29.0 0.00 0.00 0.00 67 1017.2
20260905102504 30 47 16.1 29.0 0.00 0.00 0.00 67 1017.1
20260905102404 30 45 16.1 29.0 0.00 0.00 0.00 66 1017.1
20260905102306 30 45 16.1 29.0 0.00 0.00 0.00 66 1017.1
20260905102204 30 45 14.5 29.0 0.00 0.00 0.00 66 1017.1
20260905102104 30 44 14.5 29.0 0.00 0.00 0.00 66 1017.1
20260905102004 30 44 14.5 29.0 0.00 0.00 0.00 66 1017.1
20260905101922 30 44 14.5 29.0 0.00 0.00 0.00 66 1017.0
20260905101821 30 43 14.5 29.0 0.00 0.00 0.00 65 1017.0
20260905101711 30 43 14.5 29.0 0.00 0.00 0.00 65 1017.2
20260905101631 30 43 14.5 25.7 0.00 0.00 0.00 65 1017.2
20260905101505 30 43 14.5 25.7 0.00 0.00 0.00 66 1017.1
20260905101404 30 45 14.5 25.7 0.00 0.00 0.00 66 1017.0
20260905101305 30 45 14.5 25.7 0.00 0.00 0.00 66 1017.0
20260905101204 30 44 14.5 25.7 0.00 0.00 0.00 66 1017.1
20260905101104 30 43 14.5 27.4 0.00 0.00 0.00 66 1017.0
20260905101005 30 44 14.5 27.4 0.00 0.00 0.00 65 1017.0
20260905100904 30 44 14.5 27.4 0.00 0.00 0.00 66 1017.1
20260905100804 30 47 14.5 27.4 0.00 0.00 0.00 66 1017.1
20260905100705 30 47 14.5 27.4 0.00 0.00 0.00 66 1017.0
20260905100604 30 43 14.5 27.4 0.00 0.00 0.00 65 1017.1
20260905100504 30 41 14.5 27.4 0.00 0.00 0.00 65 1017.1
20260905100408 30 39 14.5 27.4 0.00 0.00 0.00 65 1017.0
20260905100313 30 38 14.5 27.4 0.00 0.00 0.00 65 1017.0
20260905100216 30 38 14.5 27.4 0.00 0.00 0.00 64 1017.1
20260905100125 30 38 16.1 27.4 0.00 0.00 0.00 65 1016.9
20260905100004 30 37 16.1 24.1 0.00 0.00 0.00 65 1016.9
20260905095904 30 37 16.1 24.1 0.00 0.00 0.00 65 1017.0
20260905095804 30 37 16.1 29.0 0.00 0.00 0.00 65 1017.0
20260905095704 30 38 16.1 29.0 0.00 0.00 0.00 66 1017.0
20260905095604 30 41 17.7 29.0 0.00 0.00 0.00 66 1016.9
20260905095504 30 41 17.7 29.0 0.00 0.00 0.00 66 1016.9
20260905095404 30 43 17.7 29.0 0.00 0.00 0.00 66 1016.9
20260905095306 30 45 17.7 29.0 0.00 0.00 0.00 67 1016.9
20260905095204 30 46 17.7 29.0 0.00 0.00 0.00 67 1016.9
20260905095104 30 47 17.7 29.0 0.00 0.00 0.00 67 1016.9
20260905095004 30 47 17.7 29.0 0.00 0.00 0.00 66 1016.9
20260905094919 30 49 17.7 29.0 0.00 0.00 0.00 66 1017.0
20260905094818 30 49 17.7 27.4 0.00 0.00 0.00 67 1017.0
20260905094715 30 50 17.7 24.1 0.00 0.00 0.00 66 1017.0
20260905094622 30 51 17.7 24.1 0.00 0.00 0.00 66 1017.0
20260905094505 30 53 16.1 24.1 0.00 0.00 0.00 66 1017.0
20260905094404 30 53 16.1 25.7 0.00 0.00 0.00 66 1017.0
20260905094305 30 54 16.1 25.7 0.00 0.00 0.00 66 1017.0
20260905094215 30 53 16.1 25.7 0.00 0.00 0.00 66 1017.0
20260905094104 30 53 16.1 25.7 0.00 0.00 0.00 66 1017.0
20260905094004 30 51 16.1 25.7 0.00 0.00 0.00 65 1016.9
20260905093904 30 49 16.1 25.7 0.00 0.00 0.00 65 1016.9
20260905093805 30 48 16.1 25.7 0.00 0.00 0.00 66 1017.0
20260905093704 30 49 17.7 25.7 0.00 0.00 0.00 66 1017.0
20260905093605 30 48 17.7 25.7 0.00 0.00 0.00 66 1017.1
20260905093505 30 49 17.7 25.7 0.00 0.00 0.00 66 1016.9
20260905093413 30 49 17.7 25.7 0.00 0.00 0.00 65 1016.9
20260905093314 30 49 17.7 25.7 0.00 0.00 0.00 66 1017.0
20260905093217 30 50 17.7 25.7 0.00 0.00 0.00 67 1017.0
20260905093125 30 50 17.7 27.4 0.00 0.00 0.00 67 1016.9
20260905093004 30 51 17.7 27.4 0.00 0.00 0.00 67 1017.0
20260905092904 30 52 17.7 27.4 0.00 0.00 0.00 66 1017.0
20260905092804 30 54 17.7 27.4 0.00 0.00 0.00 66 1017.0
20260905092704 30 53 16.1 27.4 0.00 0.00 0.00 66 1017.0
20260905092604 30 53 16.1 29.0 0.00 0.00 0.00 67 1017.0
20260905092504 30 54 16.1 29.0 0.00 0.00 0.00 67 1017.0
20260905092404 30 53 16.1 29.0 0.00 0.00 0.00 67 1017.0
20260905092306 30 51 16.1 29.0 0.00 0.00 0.00 67 1017.0
20260905092204 30 50 16.1 29.0 0.00 0.00 0.00 67 1017.0
20260905092104 30 49 16.1 29.0 0.00 0.00 0.00 67 1017.0
20260905092004 30 50 16.1 29.0 0.00 0.00 0.00 66 1017.0
20260905091924 30 50 16.1 29.0 0.00 0.00 0.00 66 1017.0
20260905091815 30 48 16.1 29.0 0.00 0.00 0.00 66 1017.0
20260905091711 30 47 16.1 29.0 0.00 0.00 0.00 66 1017.0
20260905091631 30 47 16.1 29.0 0.00 0.00 0.00 66 1017.0
20260905091504 30 47 16.1 24.1 0.00 0.00 0.00 66 1017.0
20260905091404 30 45 16.1 24.1 0.00 0.00 0.00 66 1017.0
20260905091304 30 46 16.1 24.1 0.00 0.00 0.00 66 1017.0
20260905091104 30 48 16.1 24.1 0.00 0.00 0.00 66 1017.0
20260905091004 30 48 16.1 27.4 0.00 0.00 0.00 66 1017.1
20260905090904 30 49 16.1 27.4 0.00 0.00 0.00 67 1017.1
20260905090804 30 51 16.1 27.4 0.00 0.00 0.00 66 1017.1
20260905090704 30 52 16.1 27.4 0.00 0.00 0.00 66 1017.1
20260905090604 30 52 14.5 27.4 0.00 0.00 0.00 66 1017.1
20260905090504 30 50 14.5 27.4 0.00 0.00 0.00 66 1017.2
20260905090419 30 51 14.5 27.4 0.00 0.00 0.00 66 1017.2
20260905090317 30 49 14.5 27.4 0.00 0.00 0.00 65 1017.2
20260905090210 30 49 14.5 27.4 0.00 0.00 0.00 65 1017.1
20260905090126 30 48 14.5 27.4 0.00 0.00 0.00 65 1017.1
20260905090004 30 46 14.5 25.7 0.00 0.00 0.00 65 1017.1
20260905085904 30 44 14.5 25.7 0.00 0.00 0.00 65 1017.2
20260905085804 30 43 14.5 22.5 0.00 0.00 0.00 65 1017.2
20260905085704 30 42 14.5 22.5 0.00 0.00 0.00 65 1017.1
20260905085604 30 41 14.5 22.5 0.00 0.00 0.00 65 1017.2
20260905085504 30 46 14.5 22.5 0.00 0.00 0.00 65 1017.2
20260905085404 30 45 14.5 22.5 0.00 0.00 0.00 66 1017.2
20260905085306 30 46 14.5 22.5 0.00 0.00 0.00 66 1017.2
20260905085204 30 48 14.5 20.9 0.00 0.00 0.00 67 1017.2
20260905085104 30 49 14.5 20.9 0.00 0.00 0.00 67 1017.2
20260905085004 30 50 14.5 20.9 0.00 0.00 0.00 67 1017.2
20260905084912 30 50 14.5 20.9 0.00 0.00 0.00 67 1017.3
20260905084811 30 50 14.5 22.5 0.00 0.00 0.00 67 1017.3
20260905084717 30 51 14.5 22.5 0.00 0.00 0.00 66 1017.3
20260905084620 30 52 14.5 24.1 0.00 0.00 0.00 68 1017.2
20260905084505 30 51 14.5 24.1 0.00 0.00 0.00 68 1017.2
20260905084404 30 53 14.5 24.1 0.00 0.00 0.00 67 1017.2
20260905084304 30 52 12.9 24.1 0.00 0.00 0.00 67 1017.2
20260905084204 30 51 12.9 24.1 0.00 0.00 0.00 67 1017.2
20260905084104 30 51 12.9 24.1 0.00 0.00 0.00 67 1017.2
20260905084005 30 50 12.9 24.1 0.00 0.00 0.00 66 1017.2
20260905083904 30 51 12.9 24.1 0.00 0.00 0.00 66 1017.3
20260905083804 30 52 12.9 24.1 0.00 0.00 0.00 67 1017.2
20260905083704 30 49 12.9 24.1 0.00 0.00 0.00 67 1017.2
20260905083604 30 47 12.9 22.5 0.00 0.00 0.00 67 1017.1
20260905083504 30 45 12.9 19.3 0.00 0.00 0.00 66 1017.1